Wetterdaten: aktuell Samstag, 20.07.2019 08:04
Datum Zeit Temp. Aussen Temp. o. S. +5cm Feuchte Auss Luftdruck Regen Sonnenschein Regendauer Solar Windben Empfang
20.07.2019 08:04 18,8 C 18,9 C 18,3 C 84 % 1010,7 hPa 0,0 l/m 0 min 0 min 49 W/m 16,1 km/h (3 Bft) 100,00 %
20.07.2019 08:02 18,7 C 18,9 C 18,3 C 84 % 1010,7 hPa 0,0 l/m 0 min 0 min 49 W/m 16,1 km/h (3 Bft) 100,00 %
20.07.2019 08:00 18,7 C 18,9 C 18,3 C 84 % 1010,7 hPa 0,0 l/m 0 min 0 min 49 W/m 9,7 km/h (2 Bft) 100,00 %
20.07.2019 07:58 18,6 C 18,9 C 18,3 C 84 % 1010,8 hPa 0,0 l/m 0 min 0 min 47 W/m 19,3 km/h (3 Bft) 100,00 %
20.07.2019 07:56 18,5 C 18,9 C 18,3 C 84 % 1010,8 hPa 0,0 l/m 0 min 0 min 48 W/m 22,5 km/h (4 Bft) 100,00 %
20.07.2019 07:54 18,4 C 18,9 C 18,3 C 85 % 1010,8 hPa 0,0 l/m 0 min 0 min 48 W/m 29,0 km/h (5 Bft) 100,00 %
20.07.2019 07:52 18,4 C 18,9 C 17,8 C 85 % 1010,8 hPa 0,0 l/m 0 min 0 min 52 W/m 19,3 km/h (3 Bft) 97,87 %
20.07.2019 07:50 18,3 C 18,9 C 17,8 C 85 % 1010,8 hPa 0,0 l/m 0 min 0 min 53 W/m 25,7 km/h (4 Bft) 100,00 %
20.07.2019 07:48 18,2 C 18,3 C 17,8 C 85 % 1010,9 hPa 0,0 l/m 0 min 0 min 50 W/m 16,1 km/h (3 Bft) 100,00 %
20.07.2019 07:46 18,2 C 18,3 C 17,8 C 85 % 1010,8 hPa 0,0 l/m 0 min 0 min 51 W/m 16,1 km/h (3 Bft) 100,00 %
20.07.2019 07:44 18,1 C 18,3 C 17,8 C 85 % 1010,9 hPa 0,0 l/m 0 min 0 min 49 W/m 16,1 km/h (3 Bft) 100,00 %
20.07.2019 07:42 18,1 C 18,3 C 17,2 C 85 % 1010,9 hPa 0,0 l/m 0 min 0 min 47 W/m 9,7 km/h (2 Bft) 100,00 %
20.07.2019 07:40 18,1 C 17,8 C 17,2 C 85 % 1010,8 hPa 0,0 l/m 0 min 0 min 47 W/m 22,5 km/h (4 Bft) 100,00 %
20.07.2019 07:38 18,0 C 17,8 C 17,2 C 85 % 1010,8 hPa 0,0 l/m 0 min 0 min 44 W/m 16,1 km/h (3 Bft) 97,87 %
20.07.2019 07:36 18,0 C 17,8 C 17,2 C 85 % 1010,9 hPa 0,0 l/m 0 min 0 min 42 W/m 9,7 km/h (2 Bft) 100,00 %
20.07.2019 07:34 17,9 C 17,8 C 17,2 C 85 % 1010,9 hPa 0,0 l/m 0 min 0 min 39 W/m 12,9 km/h (3 Bft) 100,00 %
20.07.2019 07:32 17,9 C 17,8 C 17,2 C 85 % 1010,9 hPa 0,0 l/m 0 min 0 min 37 W/m 16,1 km/h (3 Bft) 97,87 %
20.07.2019 07:30 17,9 C 17,8 C 17,2 C 85 % 1010,9 hPa 0,0 l/m 0 min 0 min 34 W/m 16,1 km/h (3 Bft) 97,87 %
20.07.2019 07:28 17,9 C 17,8 C 17,2 C 85 % 1010,9 hPa 0,0 l/m 0 min 0 min 33 W/m 9,7 km/h (2 Bft) 100,00 %
20.07.2019 07:26 17,9 C 17,8 C 17,2 C 85 % 1011,0 hPa 0,0 l/m 0 min 0 min 33 W/m 9,7 km/h (2 Bft) 100,00 %
20.07.2019 07:24 17,8 C 17,8 C 17,2 C 85 % 1011,0 hPa 0,0 l/m 0 min 0 min 33 W/m 16,1 km/h (3 Bft) 100,00 %
20.07.2019 07:22 17,8 C 17,2 C 16,7 C 85 % 1011,0 hPa 0,0 l/m 0 min 0 min 33 W/m 16,1 km/h (3 Bft) 95,65 %
20.07.2019 07:20 17,8 C 17,2 C 16,7 C 85 % 1011,0 hPa 0,0 l/m 0 min 0 min 32 W/m 9,7 km/h (2 Bft) 100,00 %
20.07.2019 07:18 17,8 C 17,2 C 16,7 C 85 % 1011,0 hPa 0,0 l/m 0 min 0 min 33 W/m 16,1 km/h (3 Bft) 97,87 %
20.07.2019 07:16 17,8 C 17,2 C 16,7 C 85 % 1011,0 hPa 0,0 l/m 0 min 0 min 32 W/m 16,1 km/h (3 Bft) 97,87 %
20.07.2019 07:14 17,7 C 17,2 C 16,7 C 85 % 1011,0 hPa 0,0 l/m 0 min 0 min 30 W/m 25,7 km/h (4 Bft) 100,00 %
20.07.2019 07:12 17,7 C 17,2 C 16,7 C 85 % 1011,0 hPa 0,0 l/m 0 min 0 min 29 W/m 22,5 km/h (4 Bft) 95,74 %
20.07.2019 07:10 17,7 C 17,2 C 16,7 C 85 % 1011,0 hPa 0,0 l/m 0 min 0 min 30 W/m 16,1 km/h (3 Bft) 93,48 %
20.07.2019 07:08 17,7 C 17,2 C 16,7 C 85 % 1011,0 hPa 0,0 l/m 0 min 0 min 28 W/m 12,9 km/h (3 Bft) 92,11 %
20.07.2019 07:06 17,7 C 17,2 C 16,7 C 86 % 1011,1 hPa 0,0 l/m 0 min 0 min 28 W/m 16,1 km/h (3 Bft) 94,55 %
20.07.2019 07:04 17,6 C 17,2 C 16,7 C 86 % 1011,1 hPa 0,0 l/m 0 min 0 min 29 W/m 16,1 km/h (3 Bft) 93,62 %
20.07.2019 07:02 17,6 C 17,2 C 16,7 C 86 % 1011,1 hPa 0,0 l/m 0 min 0 min 30 W/m 16,1 km/h (3 Bft) 91,49 %
20.07.2019 07:00 17,6 C 17,2 C 16,7 C 86 % 1011,1 hPa 0,0 l/m 0 min 0 min 30 W/m 16,1 km/h (3 Bft) 89,58 %
20.07.2019 06:58 17,6 C 17,2 C 16,7 C 86 % 1011,2 hPa 0,0 l/m 0 min 0 min 28 W/m 19,3 km/h (3 Bft) 94,74 %
20.07.2019 06:56 17,6 C 17,2 C 16,7 C 86 % 1011,2 hPa 0,0 l/m 0 min 0 min 28 W/m 16,1 km/h (3 Bft) 90,74 %
20.07.2019 06:54 17,5 C 17,2 C 16,7 C 86 % 1011,1 hPa 0,0 l/m 0 min 0 min 27 W/m 19,3 km/h (3 Bft) 93,62 %
20.07.2019 06:52 17,5 C 17,2 C 16,7 C 86 % 1011,2 hPa 0,0 l/m 0 min 0 min 27 W/m 22,5 km/h (4 Bft) 93,62 %
20.07.2019 06:50 17,5 C 17,2 C 16,7 C 86 % 1011,1 hPa 0,0 l/m 0 min 0 min 28 W/m 16,1 km/h (3 Bft) 93,62 %
20.07.2019 06:48 17,5 C 17,2 C 16,7 C 86 % 1011,2 hPa 0,0 l/m 0 min 0 min 29 W/m 16,1 km/h (3 Bft) 91,30 %
20.07.2019 06:46 17,5 C 16,7 C 16,7 C 86 % 1011,1 hPa 0,0 l/m 0 min 0 min 28 W/m 12,9 km/h (3 Bft) 91,67 %
20.07.2019 06:44 17,4 C 16,7 C 16,7 C 85 % 1011,1 hPa 0,0 l/m 0 min 0 min 28 W/m 22,5 km/h (4 Bft) 91,49 %
20.07.2019 06:42 17,4 C 16,7 C 16,7 C 85 % 1011,1 hPa 0,0 l/m 0 min 0 min 27 W/m 12,9 km/h (3 Bft) 93,62 %
20.07.2019 06:40 17,4 C 16,7 C 16,7 C 85 % 1011,2 hPa 0,0 l/m 0 min 0 min 26 W/m 9,7 km/h (2 Bft) 93,62 %
20.07.2019 06:38 17,4 C 16,7 C 16,7 C 85 % 1011,1 hPa 0,0 l/m 0 min 0 min 25 W/m 16,1 km/h (3 Bft) 93,62 %
20.07.2019 06:36 17,4 C 16,7 C 16,7 C 85 % 1011,2 hPa 0,0 l/m 0 min 0 min 25 W/m 22,5 km/h (4 Bft) 93,48 %
20.07.2019 06:34 17,4 C 16,7 C 16,7 C 85 % 1011,1 hPa 0,0 l/m 0 min 0 min 23 W/m 22,5 km/h (4 Bft) 89,47 %
20.07.2019 06:32 17,4 C 16,7 C 16,7 C 85 % 1011,1 hPa 0,0 l/m 0 min 0 min 23 W/m 12,9 km/h (3 Bft) 94,55 %
20.07.2019 06:30 17,4 C 16,7 C 16,1 C 85 % 1011,1 hPa 0,0 l/m 0 min 0 min 22 W/m 12,9 km/h (3 Bft) 93,62 %
20.07.2019 06:28 17,4 C 16,7 C 16,1 C 85 % 1011,1 hPa 0,0 l/m 0 min 0 min 21 W/m 19,3 km/h (3 Bft) 91,49 %
20.07.2019 06:26 17,4 C 16,7 C 16,1 C 85 % 1011,1 hPa 0,0 l/m 0 min 0 min 19 W/m 9,7 km/h (2 Bft) 93,62 %
20.07.2019 06:24 17,4 C 16,7 C 16,1 C 85 % 1011,1 hPa 0,0 l/m 0 min 0 min 18 W/m 16,1 km/h (3 Bft) 93,48 %
20.07.2019 06:22 17,4 C 16,7 C 16,1 C 85 % 1011,2 hPa 0,0 l/m 0 min 0 min 17 W/m 12,9 km/h (3 Bft) 95,83 %
20.07.2019 06:20 17,4 C 16,7 C 16,1 C 85 % 1011,2 hPa 0,0 l/m 0 min 0 min 16 W/m 25,7 km/h (4 Bft) 97,37 %
20.07.2019 06:18 17,4 C 16,7 C 16,1 C 85 % 1011,2 hPa 0,0 l/m 0 min 0 min 15 W/m 19,3 km/h (3 Bft) 98,18 %
20.07.2019 06:16 17,4 C 16,7 C 16,1 C 85 % 1011,3 hPa 0,0 l/m 0 min 0 min 13 W/m 12,9 km/h (3 Bft) 95,74 %
20.07.2019 06:14 17,4 C 16,7 C 16,1 C 85 % 1011,2 hPa 0,0 l/m 0 min 0 min 12 W/m 16,1 km/h (3 Bft) 93,62 %
20.07.2019 06:12 17,4 C 16,7 C 16,1 C 85 % 1011,3 hPa 0,0 l/m 0 min 0 min 11 W/m 9,7 km/h (2 Bft) 97,87 %
20.07.2019 06:10 17,4 C 16,7 C 16,1 C 85 % 1011,3 hPa 0,0 l/m 0 min 0 min 11 W/m 16,1 km/h (3 Bft) 97,37 %
20.07.2019 06:08 17,4 C 16,7 C 16,1 C 85 % 1011,4 hPa 0,0 l/m 0 min 0 min 9 W/m 19,3 km/h (3 Bft) 100,00 %
20.07.2019 06:04 17,4 C 16,7 C 16,1 C 85 % 1011,4 hPa 0,0 l/m 0 min 0 min 7 W/m 16,1 km/h (3 Bft) 97,87 %
20.07.2019 06:02 17,4 C 16,7 C 16,1 C 85 % 1011,4 hPa 0,0 l/m 0 min 0 min 7 W/m 16,1 km/h (3 Bft) 97,87 %
20.07.2019 06:00 17,4 C 16,7 C 16,1 C 85 % 1011,4 hPa 0,0 l/m 0 min 0 min 6 W/m 12,9 km/h (3 Bft) 97,87 %
20.07.2019 05:58 17,4 C 16,7 C 16,1 C 85 % 1011,3 hPa 0,0 l/m 0 min 0 min 5 W/m 9,7 km/h (2 Bft) 100,00 %
20.07.2019 05:56 17,4 C 16,7 C 16,1 C 85 % 1011,3 hPa 0,0 l/m 0 min 0 min 5 W/m 16,1 km/h (3 Bft) 100,00 %
20.07.2019 05:54 17,4 C 16,7 C 16,1 C 85 % 1011,3 hPa 0,0 l/m 0 min 0 min 2 W/m 16,1 km/h (3 Bft) 98,18 %
20.07.2019 05:52 17,4 C 16,7 C 16,1 C 85 % 1011,3 hPa 0,0 l/m 0 min 0 min 0 W/m 9,7 km/h (2 Bft) 100,00 %
20.07.2019 05:50 17,4 C 16,7 C 16,1 C 85 % 1011,4 hPa 0,0 l/m 0 min 0 min 0 W/m 6,4 km/h (2 Bft) 100,00 %
20.07.2019 05:48 17,4 C 16,7 C 16,1 C 85 % 1011,4 hPa 0,0 l/m 0 min 0 min 0 W/m 16,1 km/h (3 Bft) 100,00 %
20.07.2019 05:46 17,4 C 16,7 C 16,1 C 84 % 1011,4 hPa 0,0 l/m 0 min 0 min 0 W/m 12,9 km/h (3 Bft) 100,00 %
20.07.2019 05:44 17,5 C 16,7 C 16,1 C 84 % 1011,4 hPa 0,0 l/m 0 min 0 min 0 W/m 9,7 km/h (2 Bft) 97,37 %
20.07.2019 05:42 17,5 C 16,7 C 16,1 C 84 % 1011,4 hPa 0,0 l/m 0 min 0 min 0 W/m 12,9 km/h (3 Bft) 100,00 %
20.07.2019 05:40 17,5 C 16,7 C 16,1 C 84 % 1011,5 hPa 0,0 l/m 0 min 0 min 0 W/m 12,9 km/h (3 Bft) 100,00 %
20.07.2019 05:38 17,5 C 16,7 C 16,1 C 84 % 1011,4 hPa 0,0 l/m 0 min 0 min 0 W/m 9,7 km/h (2 Bft) 100,00 %
20.07.2019 05:36 17,5 C 16,7 C 16,1 C 84 % 1011,6 hPa 0,0 l/m 0 min 0 min 0 W/m 19,3 km/h (3 Bft) 97,87 %
20.07.2019 05:34 17,5 C 16,7 C 16,1 C 84 % 1011,6 hPa 0,0 l/m 0 min 0 min 0 W/m 9,7 km/h (2 Bft) 100,00 %
20.07.2019 05:32 17,5 C 16,7 C 16,1 C 84 % 1011,6 hPa 0,0 l/m 0 min 0 min 0 W/m 9,7 km/h (2 Bft) 100,00 %
20.07.2019 05:30 17,5 C 16,7 C 16,1 C 84 % 1011,6 hPa 0,0 l/m 0 min 0 min 0 W/m 12,9 km/h (3 Bft) 100,00 %
20.07.2019 05:28 17,5 C 16,7 C 16,1 C 84 % 1011,6 hPa 0,0 l/m 0 min 0 min 0 W/m 16,1 km/h (3 Bft) 100,00 %
20.07.2019 05:26 17,5 C 16,7 C 16,1 C 84 % 1011,6 hPa 0,0 l/m 0 min 0 min 0 W/m 16,1 km/h (3 Bft) 98,11 %
20.07.2019 05:24 17,5 C 16,7 C 16,1 C 84 % 1011,6 hPa 0,0 l/m 0 min 0 min 0 W/m 9,7 km/h (2 Bft) 100,00 %
20.07.2019 05:22 17,5 C 16,7 C 16,1 C 84 % 1011,6 hPa 0,0 l/m 0 min 0 min 0 W/m 9,7 km/h (2 Bft) 97,87 %
20.07.2019 05:20 17,5 C 16,7 C 16,1 C 84 % 1011,6 hPa 0,0 l/m 0 min 0 min 0 W/m 9,7 km/h (2 Bft) 100,00 %
20.07.2019 05:18 17,5 C 16,7 C 16,7 C 84 % 1011,7 hPa 0,0 l/m 0 min 0 min 0 W/m 12,9 km/h (3 Bft) 100,00 %
20.07.2019 05:16 17,5 C 16,7 C 16,7 C 84 % 1011,6 hPa 0,0 l/m 0 min 0 min 0 W/m 12,9 km/h (3 Bft) 100,00 %
20.07.2019 05:14 17,5 C 16,7 C 16,1 C 84 % 1011,6 hPa 0,0 l/m 0 min 0 min 0 W/m 19,3 km/h (3 Bft) 100,00 %
20.07.2019 05:12 17,5 C 16,7 C 16,1 C 84 % 1011,8 hPa 0,0 l/m 0 min 0 min 0 W/m 12,9 km/h (3 Bft) 97,87 %
20.07.2019 05:10 17,5 C 16,7 C 16,1 C 84 % 1011,8 hPa 0,0 l/m 0 min 0 min 0 W/m 16,1 km/h (3 Bft) 100,00 %
20.07.2019 05:08 17,5 C 16,7 C 16,1 C 84 % 1011,7 hPa 0,0 l/m 0 min 0 min 0 W/m 9,7 km/h (2 Bft) 97,37 %
20.07.2019 05:06 17,5 C 16,7 C 16,1 C 84 % 1011,7 hPa 0,0 l/m 0 min 0 min 0 W/m 19,3 km/h (3 Bft) 98,15 %
20.07.2019 05:04 17,5 C 16,7 C 16,1 C 84 % 1011,8 hPa 0,0 l/m 0 min 0 min 0 W/m 12,9 km/h (3 Bft) 100,00 %
20.07.2019 05:02 17,5 C 16,7 C 16,1 C 84 % 1011,8 hPa 0,0 l/m 0 min 0 min 0 W/m 12,9 km/h (3 Bft) 100,00 %
20.07.2019 05:00 17,5 C 16,7 C 16,1 C 83 % 1011,7 hPa 0,0 l/m 0 min 0 min 0 W/m 12,9 km/h (3 Bft) 100,00 %
20.07.2019 04:58 17,5 C 16,7 C 16,1 C 83 % 1011,8 hPa 0,0 l/m 0 min 0 min 0 W/m 16,1 km/h (3 Bft) 100,00 %
20.07.2019 04:56 17,5 C 16,7 C 16,1 C 83 % 1011,8 hPa 0,0 l/m 0 min 0 min 0 W/m 16,1 km/h (3 Bft) 100,00 %
20.07.2019 04:54 17,6 C 16,7 C 16,1 C 83 % 1011,8 hPa 0,0 l/m 0 min 0 min 0 W/m 9,7 km/h (2 Bft) 97,87 %
20.07.2019 04:52 17,6 C 16,7 C 16,1 C 83 % 1011,8 hPa 0,0 l/m 0 min 0 min 0 W/m 16,1 km/h (3 Bft) 100,00 %
20.07.2019 04:50 17,6 C 16,7 C 16,1 C 83 % 1011,8 hPa 0,0 l/m 0 min 0 min 0 W/m 16,1 km/h (3 Bft) 100,00 %
20.07.2019 04:48 17,6 C 16,7 C 16,1 C 83 % 1011,8 hPa 0,0 l/m 0 min 0 min 0 W/m 16,1 km/h (3 Bft) 100,00 %
20.07.2019 04:46 17,6 C 16,7 C 16,1 C 83 % 1011,9 hPa 0,0 l/m 0 min 0 min 0 W/m 19,3 km/h (3 Bft) 100,00 %
20.07.2019 04:44 17,6 C 16,7 C 16,1 C 83 % 1011,9 hPa 0,0 l/m 0 min 0 min 0 W/m 9,7 km/h (2 Bft) 97,87 %
20.07.2019 04:42 17,7 C 16,7 C 16,1 C 83 % 1011,9 hPa 0,0 l/m 0 min 0 min 0 W/m 9,7 km/h (2 Bft) 100,00 %
20.07.2019 04:40 17,7 C 16,1 C 16,1 C 83 % 1011,9 hPa 0,0 l/m 0 min 0 min 0 W/m 9,7 km/h (2 Bft) 100,00 %
20.07.2019 04:38 17,7 C 16,7 C 16,1 C 83 % 1011,9 hPa 0,0 l/m 0 min 0 min 0 W/m 6,4 km/h (2 Bft) 100,00 %
20.07.2019 04:36 17,7 C 16,7 C 16,1 C 83 % 1011,9 hPa 0,0 l/m 0 min 0 min 0 W/m 9,7 km/h (2 Bft) 97,87 %
20.07.2019 04:34 17,7 C 16,7 C 16,1 C 83 % 1011,9 hPa 0,0 l/m 0 min 0 min 0 W/m 6,4 km/h (2 Bft) 100,00 %
20.07.2019 04:32 17,7 C 16,7 C 16,1 C 83 % 1011,9 hPa 0,0 l/m 0 min 0 min 0 W/m 9,7 km/h (2 Bft) 100,00 %
20.07.2019 04:30 17,7 C 16,7 C 16,1 C 82 % 1011,9 hPa 0,0 l/m 0 min 0 min 0 W/m 12,9 km/h (3 Bft) 100,00 %
20.07.2019 04:28 17,7 C 16,7 C 16,1 C 82 % 1011,9 hPa 0,0 l/m 0 min 0 min 0 W/m 9,7 km/h (2 Bft) 100,00 %
20.07.2019 04:26 17,8 C 16,7 C 16,1 C 82 % 1012,0 hPa 0,0 l/m 0 min 0 min 0 W/m 12,9 km/h (3 Bft) 93,62 %
20.07.2019 04:24 17,8 C 16,7 C 16,1 C 82 % 1012,0 hPa 0,0 l/m 0 min 0 min 0 W/m 9,7 km/h (2 Bft) 97,87 %
20.07.2019 04:22 17,8 C 16,7 C 16,1 C 82 % 1011,9 hPa 0,0 l/m 0 min 0 min 0 W/m 9,7 km/h (2 Bft) 97,87 %
20.07.2019 04:20 17,8 C 16,7 C 16,7 C 82 % 1011,9 hPa 0,0 l/m 0 min 0 min 0 W/m 6,4 km/h (2 Bft) 95,74 %
20.07.2019 04:18 17,8 C 16,7 C 16,7 C 82 % 1011,9 hPa 0,0 l/m 0 min 0 min 0 W/m 12,9 km/h (3 Bft) 91,49 %
20.07.2019 04:16 17,8 C 16,7 C 16,7 C 82 % 1011,9 hPa 0,0 l/m 0 min 0 min 0 W/m 16,1 km/h (3 Bft) 95,65 %
20.07.2019 04:14 17,8 C 16,7 C 16,7 C 82 % 1011,9 hPa 0,0 l/m 0 min 0 min 0 W/m 9,7 km/h (2 Bft) 95,74 %
20.07.2019 04:12 17,8 C 16,7 C 16,7 C 81 % 1012,1 hPa 0,0 l/m 0 min 0 min 0 W/m 9,7 km/h (2 Bft) 95,74 %
20.07.2019 04:10 17,9 C 16,7 C 16,7 C 81 % 1012,0 hPa 0,0 l/m 0 min 0 min 0 W/m 9,7 km/h (2 Bft) 93,62 %
20.07.2019 04:08 17,9 C 16,7 C 16,7 C 81 % 1012,0 hPa 0,0 l/m 0 min 0 min 0 W/m 6,4 km/h (2 Bft) 95,74 %
20.07.2019 04:06 17,9 C 16,7 C 16,7 C 81 % 1011,9 hPa 0,0 l/m 0 min 0 min 0 W/m 6,4 km/h (2 Bft) 93,62 %
20.07.2019 04:04 17,9 C 16,7 C 16,7 C 81 % 1012,0 hPa 0,0 l/m 0 min 0 min 0 W/m 9,7 km/h (2 Bft) 95,65 %
20.07.2019 04:02 17,9 C 16,7 C 16,7 C 81 % 1012,0 hPa 0,0 l/m 0 min 0 min 0 W/m 9,7 km/h (2 Bft) 96,15 %
20.07.2019 04:00 17,9 C 16,7 C 16,7 C 81 % 1012,0 hPa 0,0 l/m 0 min 0 min 0 W/m 9,7 km/h (2 Bft) 95,74 %
20.07.2019 03:58 17,9 C 16,7 C 16,7 C 81 % 1012,0 hPa 0,0 l/m 0 min 0 min 0 W/m 6,4 km/h (2 Bft) 93,62 %
20.07.2019 03:56 18,0 C 16,7 C 16,7 C 81 % 1012,0 hPa 0,0 l/m 0 min 0 min 0 W/m 9,7 km/h (2 Bft) 95,74 %
20.07.2019 03:54 18,0 C 16,7 C 16,7 C 81 % 1012,1 hPa 0,0 l/m 0 min 0 min 0 W/m 12,9 km/h (3 Bft) 95,74 %
20.07.2019 03:52 18,0 C 16,7 C 16,7 C 80 % 1012,1 hPa 0,0 l/m 0 min 0 min 0 W/m 12,9 km/h (3 Bft) 95,65 %
20.07.2019 03:50 18,1 C 16,7 C 16,7 C 80 % 1012,1 hPa 0,0 l/m 0 min 0 min 0 W/m 12,9 km/h (3 Bft) 93,62 %
20.07.2019 03:48 18,1 C 16,7 C 16,7 C 80 % 1012,2 hPa 0,0 l/m 0 min 0 min 0 W/m 12,9 km/h (3 Bft) 93,62 %
20.07.2019 03:46 18,1 C 16,7 C 16,7 C 80 % 1012,1 hPa 0,0 l/m 0 min 0 min 0 W/m 9,7 km/h (2 Bft) 95,74 %
20.07.2019 03:44 18,1 C 16,7 C 16,7 C 80 % 1012,2 hPa 0,0 l/m 0 min 0 min 0 W/m 12,9 km/h (3 Bft) 95,74 %
20.07.2019 03:42 18,1 C 16,7 C 16,7 C 80 % 1012,2 hPa 0,0 l/m 0 min 0 min 0 W/m 9,7 km/h (2 Bft) 93,62 %
20.07.2019 03:40 18,2 C 16,7 C 16,7 C 79 % 1012,2 hPa 0,0 l/m 0 min 0 min 0 W/m 16,1 km/h (3 Bft) 95,65 %
20.07.2019 03:38 18,2 C 16,7 C 16,7 C 79 % 1012,2 hPa 0,0 l/m 0 min 0 min 0 W/m 9,7 km/h (2 Bft) 95,74 %
20.07.2019 03:36 18,2 C 16,7 C 16,7 C 79 % 1012,1 hPa 0,0 l/m 0 min 0 min 0 W/m 9,7 km/h (2 Bft) 97,87 %
20.07.2019 03:34 18,2 C 16,7 C 16,7 C 79 % 1012,1 hPa 0,0 l/m 0 min 0 min 0 W/m 6,4 km/h (2 Bft) 95,74 %
20.07.2019 03:32 18,2 C 16,7 C 16,7 C 79 % 1012,2 hPa 0,0 l/m 0 min 0 min 0 W/m 9,7 km/h (2 Bft) 95,74 %
20.07.2019 03:30 18,3 C 16,7 C 16,7 C 79 % 1012,2 hPa 0,0 l/m 0 min 0 min 0 W/m 12,9 km/h (3 Bft) 95,65 %
20.07.2019 03:28 18,3 C 16,7 C 16,7 C 79 % 1012,2 hPa 0,0 l/m 0 min 0 min 0 W/m 16,1 km/h (3 Bft) 95,74 %
20.07.2019 03:26 18,3 C 16,7 C 16,7 C 79 % 1012,2 hPa 0,0 l/m 0 min 0 min 0 W/m 9,7 km/h (2 Bft) 95,74 %
20.07.2019 03:24 18,3 C 16,7 C 16,7 C 79 % 1012,2 hPa 0,0 l/m 0 min 0 min 0 W/m 6,4 km/h (2 Bft) 97,87 %
20.07.2019 03:22 18,4 C 16,7 C 16,7 C 79 % 1012,2 hPa 0,0 l/m 0 min 0 min 0 W/m 9,7 km/h (2 Bft) 97,87 %
20.07.2019 03:20 18,4 C 16,7 C 16,7 C 78 % 1012,2 hPa 0,0 l/m 0 min 0 min 0 W/m 6,4 km/h (2 Bft) 95,74 %
20.07.2019 03:18 18,4 C 17,2 C 16,7 C 78 % 1012,2 hPa 0,0 l/m 0 min 0 min 0 W/m 6,4 km/h (2 Bft) 95,65 %
20.07.2019 03:16 18,4 C 17,2 C 16,7 C 78 % 1012,2 hPa 0,0 l/m 0 min 0 min 0 W/m 9,7 km/h (2 Bft) 93,62 %
20.07.2019 03:14 18,4 C 17,2 C 16,7 C 78 % 1012,2 hPa 0,0 l/m 0 min 0 min 0 W/m 6,4 km/h (2 Bft) 95,74 %
20.07.2019 03:12 18,4 C 17,2 C 16,7 C 78 % 1012,2 hPa 0,0 l/m 0 min 0 min 0 W/m 9,7 km/h (2 Bft) 97,87 %
20.07.2019 03:10 18,5 C 17,2 C 16,7 C 78 % 1012,3 hPa 0,0 l/m 0 min 0 min 0 W/m 6,4 km/h (2 Bft) 93,62 %
20.07.2019 03:08 18,5 C 17,2 C 17,2 C 77 % 1012,3 hPa 0,0 l/m 0 min 0 min 0 W/m 12,9 km/h (3 Bft) 95,74 %
20.07.2019 03:06 18,5 C 17,2 C 17,2 C 77 % 1012,4 hPa 0,0 l/m 0 min 0 min 0 W/m 6,4 km/h (2 Bft) 97,83 %
20.07.2019 03:04 18,5 C 17,2 C 17,2 C 77 % 1012,4 hPa 0,0 l/m 0 min 0 min 0 W/m 9,7 km/h (2 Bft) 97,87 %
20.07.2019 03:02 18,6 C 17,2 C 17,2 C 77 % 1012,4 hPa 0,0 l/m 0 min 0 min 0 W/m 6,4 km/h (2 Bft) 97,87 %
20.07.2019 03:00 18,6 C 17,2 C 17,2 C 77 % 1012,3 hPa 0,0 l/m 0 min 0 min 0 W/m 9,7 km/h (2 Bft) 97,87 %
20.07.2019 02:58 18,6 C 17,2 C 17,2 C 77 % 1012,4 hPa 0,0 l/m 0 min 0 min 0 W/m 6,4 km/h (2 Bft) 97,87 %
20.07.2019 02:56 18,6 C 17,2 C 17,2 C 77 % 1012,4 hPa 0,0 l/m 0 min 0 min 0 W/m 6,4 km/h (2 Bft) 97,87 %
20.07.2019 02:54 18,6 C 17,2 C 17,2 C 77 % 1012,3 hPa 0,0 l/m 0 min 0 min 0 W/m 6,4 km/h (2 Bft) 97,83 %
20.07.2019 02:52 18,7 C 17,2 C 17,2 C 77 % 1012,4 hPa 0,0 l/m 0 min 0 min 0 W/m 6,4 km/h (2 Bft) 97,87 %
20.07.2019 02:50 18,7 C 17,2 C 17,2 C 77 % 1012,5 hPa 0,0 l/m 0 min 0 min 0 W/m 9,7 km/h (2 Bft) 97,87 %
20.07.2019 02:48 18,7 C 17,2 C 17,2 C 77 % 1012,4 hPa 0,0 l/m 0 min 0 min 0 W/m 6,4 km/h (2 Bft) 97,87 %
20.07.2019 02:46 18,7 C 17,2 C 17,2 C 76 % 1012,4 hPa 0,0 l/m 0 min 0 min 0 W/m 9,7 km/h (2 Bft) 97,87 %
20.07.2019 02:44 18,7 C 17,2 C 17,2 C 76 % 1012,4 hPa 0,0 l/m 0 min 0 min 0 W/m 19,3 km/h (3 Bft) 97,87 %
20.07.2019 02:42 18,8 C 17,2 C 17,2 C 76 % 1012,4 hPa 0,0 l/m 0 min 0 min 0 W/m 16,1 km/h (3 Bft) 97,83 %
20.07.2019 02:40 18,8 C 17,2 C 17,2 C 76 % 1012,5 hPa 0,0 l/m 0 min 0 min 0 W/m 6,4 km/h (2 Bft) 97,87 %
20.07.2019 02:38 18,8 C 17,2 C 17,2 C 76 % 1012,5 hPa 0,0 l/m 0 min 0 min 0 W/m 9,7 km/h (2 Bft) 97,87 %
20.07.2019 02:36 18,8 C 17,2 C 17,2 C 76 % 1012,5 hPa 0,0 l/m 0 min 0 min 0 W/m 6,4 km/h (2 Bft) 97,87 %
20.07.2019 02:34 18,8 C 17,2 C 17,2 C 75 % 1012,5 hPa 0,0 l/m 0 min 0 min 0 W/m 6,4 km/h (2 Bft) 100,00 %
20.07.2019 02:32 18,8 C 17,2 C 17,2 C 75 % 1012,5 hPa 0,0 l/m 0 min 0 min 0 W/m 9,7 km/h (2 Bft) 97,87 %
20.07.2019 02:30 18,9 C 17,2 C 17,2 C 75 % 1012,5 hPa 0,0 l/m 0 min 0 min 0 W/m 6,4 km/h (2 Bft) 100,00 %
20.07.2019 02:28 18,9 C 17,8 C 17,2 C 75 % 1012,6 hPa 0,0 l/m 0 min 0 min 0 W/m 6,4 km/h (2 Bft) 100,00 %
20.07.2019 02:26 18,9 C 17,8 C 17,2 C 75 % 1012,6 hPa 0,0 l/m 0 min 0 min 0 W/m 6,4 km/h (2 Bft) 100,00 %
20.07.2019 02:24 18,9 C 17,8 C 17,2 C 75 % 1012,6 hPa 0,0 l/m 0 min 0 min 0 W/m 6,4 km/h (2 Bft) 100,00 %
20.07.2019 02:22 18,9 C 17,8 C 17,2 C 75 % 1012,6 hPa 0,0 l/m 0 min 0 min 0 W/m 6,4 km/h (2 Bft) 100,00 %
20.07.2019 02:20 18,9 C 17,8 C 17,2 C 75 % 1012,6 hPa 0,0 l/m 0 min 0 min 0 W/m 6,4 km/h (2 Bft) 97,83 %
20.07.2019 02:18 18,9 C 17,8 C 17,2 C 75 % 1012,6 hPa 0,0 l/m 0 min 0 min 0 W/m 6,4 km/h (2 Bft) 100,00 %
20.07.2019 02:16 19,0 C 17,8 C 17,2 C 75 % 1012,6 hPa 0,0 l/m 0 min 0 min 0 W/m 6,4 km/h (2 Bft) 100,00 %
20.07.2019 02:14 19,0 C 17,8 C 17,8 C 75 % 1012,6 hPa 0,0 l/m 0 min 0 min 0 W/m 6,4 km/h (2 Bft) 97,87 %
20.07.2019 02:12 19,0 C 17,8 C 17,8 C 75 % 1012,6 hPa 0,0 l/m 0 min 0 min 0 W/m 6,4 km/h (2 Bft) 100,00 %
20.07.2019 02:10 19,0 C 17,8 C 17,8 C 75 % 1012,6 hPa 0,0 l/m 0 min 0 min 0 W/m 6,4 km/h (2 Bft) 100,00 %
20.07.2019 02:08 19,1 C 17,8 C 17,8 C 74 % 1012,7 hPa 0,0 l/m 0 min 0 min 0 W/m 6,4 km/h (2 Bft) 100,00 %
20.07.2019 02:06 19,1 C 17,8 C 17,8 C 74 % 1012,7 hPa 0,0 l/m 0 min 0 min 0 W/m 6,4 km/h (2 Bft) 100,00 %
20.07.2019 02:04 19,1 C 17,8 C 17,8 C 74 % 1012,7 hPa 0,0 l/m 0 min 0 min 0 W/m 6,4 km/h (2 Bft) 100,00 %
20.07.2019 02:02 19,1 C 17,8 C 17,8 C 74 % 1012,7 hPa 0,0 l/m 0 min 0 min 0 W/m 6,4 km/h (2 Bft) 100,00 %
20.07.2019 02:00 19,1 C 17,8 C 17,8 C 74 % 1012,7 hPa 0,0 l/m 0 min 0 min 0 W/m 6,4 km/h (2 Bft) 100,00 %
20.07.2019 01:58 19,1 C 17,8 C 17,8 C 74 % 1012,8 hPa 0,0 l/m 0 min 0 min 0 W/m 6,4 km/h (2 Bft) 100,00 %
20.07.2019 01:56 19,2 C 17,8 C 17,8 C 74 % 1012,8 hPa 0,0 l/m 0 min 0 min 0 W/m 9,7 km/h (2 Bft) 100,00 %
20.07.2019 01:54 19,2 C 17,8 C 17,8 C 74 % 1012,8 hPa 0,0 l/m 0 min 0 min 0 W/m 6,4 km/h (2 Bft) 97,87 %
20.07.2019 01:52 19,2 C 17,8 C 17,8 C 74 % 1012,8 hPa 0,0 l/m 0 min 0 min 0 W/m 6,4 km/h (2 Bft) 100,00 %
20.07.2019 01:50 19,2 C 17,8 C 17,8 C 73 % 1012,8 hPa 0,0 l/m 0 min 0 min 0 W/m 3,2 km/h (1 Bft) 100,00 %
20.07.2019 01:48 19,2 C 17,8 C 17,8 C 73 % 1012,9 hPa 0,0 l/m 0 min 0 min 0 W/m 3,2 km/h (1 Bft) 97,87 %
20.07.2019 01:46 19,2 C 17,8 C 17,8 C 73 % 1012,8 hPa 0,0 l/m 0 min 0 min 0 W/m 3,2 km/h (1 Bft) 97,87 %
20.07.2019 01:44 19,3 C 17,8 C 17,8 C 73 % 1012,8 hPa 0,0 l/m 0 min 0 min 0 W/m 6,4 km/h (2 Bft) 100,00 %
20.07.2019 01:42 19,3 C 17,8 C 17,8 C 73 % 1012,8 hPa 0,0 l/m 0 min 0 min 0 W/m 6,4 km/h (2 Bft) 97,87 %
20.07.2019 01:40 19,3 C 17,8 C 17,8 C 73 % 1012,8 hPa 0,0 l/m 0 min 0 min 0 W/m 3,2 km/h (1 Bft) 100,00 %
20.07.2019 01:38 19,3 C 17,8 C 17,8 C 73 % 1012,8 hPa 0,0 l/m 0 min 0 min 0 W/m 6,4 km/h (2 Bft) 97,87 %
20.07.2019 01:36 19,4 C 17,8 C 17,8 C 73 % 1012,9 hPa 0,0 l/m 0 min 0 min 0 W/m 6,4 km/h (2 Bft) 95,74 %
20.07.2019 01:34 19,4 C 17,8 C 17,8 C 73 % 1012,9 hPa 0,0 l/m 0 min 0 min 0 W/m 3,2 km/h (1 Bft) 95,74 %
20.07.2019 01:32 19,4 C 17,8 C 17,8 C 73 % 1012,9 hPa 0,0 l/m 0 min 0 min 0 W/m 9,7 km/h (2 Bft) 91,30 %
20.07.2019 01:30 19,4 C 18,3 C 17,2 C 73 % 1012,9 hPa 0,0 l/m 0 min 0 min 0 W/m 6,4 km/h (2 Bft) 93,62 %
20.07.2019 01:28 19,4 C 18,3 C 17,2 C 72 % 1012,9 hPa 0,0 l/m 0 min 0 min 0 W/m 6,4 km/h (2 Bft) 95,74 %
20.07.2019 01:26 19,5 C 18,3 C 17,2 C 72 % 1013,0 hPa 0,0 l/m 0 min 0 min 0 W/m 3,2 km/h (1 Bft) 93,62 %
20.07.2019 01:24 19,5 C 18,3 C 17,2 C 72 % 1012,9 hPa 0,0 l/m 0 min 0 min 0 W/m 3,2 km/h (1 Bft) 95,74 %
20.07.2019 01:22 19,5 C 18,3 C 17,2 C 72 % 1012,9 hPa 0,0 l/m 0 min 0 min 0 W/m 3,2 km/h (1 Bft) 95,74 %
20.07.2019 01:20 19,5 C 18,3 C 17,2 C 71 % 1013,0 hPa 0,0 l/m 0 min 0 min 0 W/m 3,2 km/h (1 Bft) 95,65 %
20.07.2019 01:18 19,6 C 18,3 C 17,2 C 71 % 1013,0 hPa 0,0 l/m 0 min 0 min 0 W/m 3,2 km/h (1 Bft) 95,74 %
20.07.2019 01:16 19,6 C 18,3 C 17,2 C 71 % 1013,0 hPa 0,0 l/m 0 min 0 min 0 W/m 3,2 km/h (1 Bft) 95,74 %
20.07.2019 01:14 19,6 C 18,3 C 17,2 C 71 % 1013,0 hPa 0,0 l/m 0 min 0 min 0 W/m 3,2 km/h (1 Bft) 93,62 %
20.07.2019 01:12 19,6 C 18,3 C 17,8 C 71 % 1013,1 hPa 0,0 l/m 0 min 0 min 0 W/m 3,2 km/h (1 Bft) 95,74 %
20.07.2019 01:10 19,6 C 18,3 C 17,8 C 71 % 1013,0 hPa 0,0 l/m 0 min 0 min 0 W/m 3,2 km/h (1 Bft) 93,62 %
20.07.2019 01:08 19,6 C 18,3 C 17,8 C 71 % 1013,0 hPa 0,0 l/m 0 min 0 min 0 W/m 3,2 km/h (1 Bft) 95,65 %
20.07.2019 01:06 19,7 C 18,3 C 17,8 C 71 % 1013,1 hPa 0,0 l/m 0 min 0 min 0 W/m 3,2 km/h (1 Bft) 95,74 %
20.07.2019 01:04 19,7 C 18,3 C 17,8 C 71 % 1013,1 hPa 0,0 l/m 0 min 0 min 0 W/m 3,2 km/h (1 Bft) 95,74 %
20.07.2019 01:02 19,7 C 18,3 C 17,8 C 71 % 1013,1 hPa 0,0 l/m 0 min 0 min 0 W/m 3,2 km/h (1 Bft) 95,74 %
20.07.2019 01:00 19,7 C 18,3 C 17,8 C 71 % 1013,1 hPa 0,0 l/m 0 min 0 min 0 W/m 3,2 km/h (1 Bft) 95,74 %
20.07.2019 00:58 19,7 C 18,3 C 17,8 C 71 % 1013,1 hPa 0,0 l/m 0 min 0 min 0 W/m 3,2 km/h (1 Bft) 95,65 %
20.07.2019 00:56 19,7 C 18,3 C 17,8 C 71 % 1013,1 hPa 0,0 l/m 0 min 0 min 0 W/m 3,2 km/h (1 Bft) 93,62 %
20.07.2019 00:54 19,8 C 18,3 C 17,8 C 71 % 1013,1 hPa 0,0 l/m 0 min 0 min 0 W/m 6,4 km/h (2 Bft) 93,62 %
20.07.2019 00:52 19,8 C 18,3 C 17,8 C 71 % 1013,2 hPa 0,0 l/m 0 min 0 min 0 W/m 3,2 km/h (1 Bft) 95,74 %
20.07.2019 00:50 19,8 C 18,3 C 17,8 C 71 % 1013,2 hPa 0,0 l/m 0 min 0 min 0 W/m 6,4 km/h (2 Bft) 95,74 %
20.07.2019 00:48 19,8 C 18,3 C 17,8 C 70 % 1013,1 hPa 0,0 l/m 0 min 0 min 0 W/m 6,4 km/h (2 Bft) 100,00 %
20.07.2019 00:46 19,8 C 18,3 C 17,8 C 70 % 1013,1 hPa 0,0 l/m 0 min 0 min 0 W/m 6,4 km/h (2 Bft) 100,00 %
20.07.2019 00:44 19,8 C 18,3 C 17,8 C 70 % 1013,1 hPa 0,0 l/m 0 min 0 min 0 W/m 6,4 km/h (2 Bft) 97,87 %
20.07.2019 00:42 19,9 C 18,3 C 17,8 C 70 % 1013,1 hPa 0,0 l/m 0 min 0 min 0 W/m 3,2 km/h (1 Bft) 97,87 %
20.07.2019 00:40 19,9 C 18,3 C 17,8 C 70 % 1013,1 hPa 0,0 l/m 0 min 0 min 0 W/m 6,4 km/h (2 Bft) 97,87 %
20.07.2019 00:38 19,9 C 18,3 C 17,8 C 70 % 1013,1 hPa 0,0 l/m 0 min 0 min 0 W/m 3,2 km/h (1 Bft) 100,00 %
20.07.2019 00:36 19,9 C 18,3 C 17,8 C 70 % 1013,0 hPa 0,0 l/m 0 min 0 min 0 W/m 6,4 km/h (2 Bft) 100,00 %
20.07.2019 00:34 19,9 C 18,3 C 17,8 C 70 % 1013,1 hPa 0,0 l/m 0 min 0 min 0 W/m 3,2 km/h (1 Bft) 100,00 %
20.07.2019 00:32 20,0 C 18,9 C 17,8 C 70 % 1013,0 hPa 0,0 l/m 0 min 0 min 0 W/m 6,4 km/h (2 Bft) 100,00 %
20.07.2019 00:30 20,0 C 18,9 C 17,8 C 70 % 1013,1 hPa 0,0 l/m 0 min 0 min 0 W/m 3,2 km/h (1 Bft) 100,00 %
20.07.2019 00:28 20,0 C 18,9 C 17,8 C 70 % 1013,1 hPa 0,0 l/m 0 min 0 min 0 W/m 3,2 km/h (1 Bft) 100,00 %
20.07.2019 00:26 20,1 C 18,9 C 17,8 C 70 % 1013,1 hPa 0,0 l/m 0 min 0 min 0 W/m 6,4 km/h (2 Bft) 100,00 %
20.07.2019 00:24 20,1 C 18,9 C 17,8 C 70 % 1013,1 hPa 0,0 l/m 0 min 0 min 0 W/m 6,4 km/h (2 Bft) 100,00 %
20.07.2019 00:22 20,1 C 18,9 C 17,2 C 70 % 1013,1 hPa 0,0 l/m 0 min 0 min 0 W/m 6,4 km/h (2 Bft) 100,00 %
20.07.2019 00:20 20,1 C 18,9 C 16,7 C 70 % 1013,1 hPa 0,0 l/m 0 min 0 min 0 W/m 6,4 km/h (2 Bft) 97,87 %
20.07.2019 00:18 20,2 C 18,9 C 16,7 C 70 % 1013,1 hPa 0,0 l/m 0 min 0 min 0 W/m 6,4 km/h (2 Bft) 100,00 %
20.07.2019 00:16 20,2 C 18,3 C 16,7 C 70 % 1013,1 hPa 0,0 l/m 0 min 0 min 0 W/m 3,2 km/h (1 Bft) 100,00 %
20.07.2019 00:14 20,2 C 18,3 C 16,7 C 70 % 1013,1 hPa 0,0 l/m 0 min 0 min 0 W/m 3,2 km/h (1 Bft) 95,74 %
20.07.2019 00:12 20,2 C 17,8 C 16,7 C 70 % 1013,1 hPa 0,0 l/m 0 min 0 min 0 W/m 0,0 km/h (0 Bft) 100,00 %
20.07.2019 00:10 20,3 C 18,3 C 16,7 C 70 % 1013,2 hPa 0,0 l/m 0 min 0 min 0 W/m 0,0 km/h (0 Bft) 100,00 %
20.07.2019 00:08 20,3 C 18,3 C 16,7 C 69 % 1013,2 hPa 0,0 l/m 0 min 0 min 0 W/m 0,0 km/h (0 Bft) 100,00 %
20.07.2019 00:04 20,3 C 18,9 C 16,7 C 67 % 1013,2 hPa 0,0 l/m 0 min 0 min 0 W/m 0,0 km/h (0 Bft) 97,87 %
20.07.2019 00:02 20,4 C 18,9 C 17,2 C 67 % 1013,2 hPa 0,0 l/m 0 min 0 min 0 W/m 0,0 km/h (0 Bft) 97,30 %
20.07.2019 00:00 20,4 C 18,9 C 17,2 C 67 % 1013,3 hPa 0,0 l/m 0 min 0 min 0 W/m 0,0 km/h (0 Bft) 97,87 %
19.07.2019 23:58 20,4 C 18,9 C 17,2 C 67 % 1013,3 hPa 0,0 l/m 0 min 0 min 0 W/m 3,2 km/h (1 Bft) 100,00 %
19.07.2019 23:56 20,4 C 18,9 C 17,2 C 67 % 1013,3 hPa 0,0 l/m 0 min 0 min 0 W/m 0,0 km/h (0 Bft) 100,00 %
19.07.2019 23:54 20,5 C 18,9 C 17,2 C 67 % 1013,2 hPa 0,0 l/m 0 min 0 min 0 W/m 0,0 km/h (0 Bft) 97,87 %
19.07.2019 23:52 20,5 C 18,9 C 17,2 C 67 % 1013,3 hPa 0,0 l/m 0 min 0 min 0 W/m 0,0 km/h (0 Bft) 97,87 %
19.07.2019 23:50 20,6 C 18,9 C 17,2 C 67 % 1013,2 hPa 0,0 l/m 0 min 0 min 0 W/m 0,0 km/h (0 Bft) 100,00 %
19.07.2019 23:48 20,6 C 19,4 C 17,2 C 67 % 1013,2 hPa 0,0 l/m 0 min 0 min 0 W/m 3,2 km/h (1 Bft) 97,83 %
19.07.2019 23:46 20,6 C 19,4 C 17,2 C 67 % 1013,2 hPa 0,0 l/m 0 min 0 min 0 W/m 3,2 km/h (1 Bft) 95,74 %
19.07.2019 23:44 20,7 C 19,4 C 17,2 C 67 % 1013,2 hPa 0,0 l/m 0 min 0 min 0 W/m 3,2 km/h (1 Bft) 97,87 %
19.07.2019 23:42 20,7 C 18,9 C 17,2 C 67 % 1013,3 hPa 0,0 l/m 0 min 0 min 0 W/m 3,2 km/h (1 Bft) 97,87 %
19.07.2019 23:40 20,7 C 18,9 C 17,2 C 67 % 1013,4 hPa 0,0 l/m 0 min 0 min 0 W/m 3,2 km/h (1 Bft) 97,87 %
19.07.2019 23:38 20,8 C 18,9 C 17,2 C 67 % 1013,3 hPa 0,0 l/m 0 min 0 min 0 W/m 3,2 km/h (1 Bft) 97,87 %
19.07.2019 23:36 20,8 C 18,9 C 17,2 C 68 % 1013,4 hPa 0,0 l/m 0 min 0 min 0 W/m 3,2 km/h (1 Bft) 97,83 %
19.07.2019 23:34 20,8 C 18,3 C 17,2 C 68 % 1013,3 hPa 0,0 l/m 0 min 0 min 0 W/m 3,2 km/h (1 Bft) 95,74 %
19.07.2019 23:32 20,9 C 18,3 C 17,2 C 68 % 1013,4 hPa 0,0 l/m 0 min 0 min 0 W/m 3,2 km/h (1 Bft) 97,87 %
19.07.2019 23:30 21,0 C 18,3 C 17,2 C 68 % 1013,3 hPa 0,0 l/m 0 min 0 min 0 W/m 0,0 km/h (0 Bft) 97,87 %
19.07.2019 23:28 21,1 C 18,3 C 17,2 C 68 % 1013,4 hPa 0,0 l/m 0 min 0 min 0 W/m 0,0 km/h (0 Bft) 97,87 %
19.07.2019 23:26 21,1 C 18,3 C 17,2 C 67 % 1013,4 hPa 0,0 l/m 0 min 0 min 0 W/m 0,0 km/h (0 Bft) 97,87 %
19.07.2019 23:24 21,2 C 18,3 C 17,2 C 68 % 1013,4 hPa 0,0 l/m 0 min 0 min 0 W/m 0,0 km/h (0 Bft) 97,83 %
19.07.2019 23:22 21,3 C 18,3 C 17,2 C 67 % 1013,4 hPa 0,0 l/m 0 min 0 min 0 W/m 0,0 km/h (0 Bft) 97,87 %
19.07.2019 23:20 21,3 C 18,3 C 17,2 C 67 % 1013,4 hPa 0,0 l/m 0 min 0 min 0 W/m 0,0 km/h (0 Bft) 97,87 %
19.07.2019 23:18 21,4 C 18,3 C 17,2 C 67 % 1013,4 hPa 0,0 l/m 0 min 0 min 0 W/m 0,0 km/h (0 Bft) 97,87 %
19.07.2019 23:16 21,5 C 18,3 C 17,2 C 67 % 1013,4 hPa 0,0 l/m 0 min 0 min 0 W/m 0,0 km/h (0 Bft) 97,87 %
19.07.2019 23:14 21,6 C 18,3 C 17,2 C 67 % 1013,4 hPa 0,0 l/m 0 min 0 min 0 W/m 0,0 km/h (0 Bft) 97,87 %
19.07.2019 23:12 21,7 C 18,9 C 17,2 C 67 % 1013,4 hPa 0,0 l/m 0 min 0 min 0 W/m 0,0 km/h (0 Bft) 95,65 %
19.07.2019 23:10 21,7 C 18,9 C 17,2 C 66 % 1013,4 hPa 0,0 l/m 0 min 0 min 0 W/m 0,0 km/h (0 Bft) 97,87 %
19.07.2019 23:08 21,8 C 18,9 C 17,2 C 66 % 1013,4 hPa 0,0 l/m 0 min 0 min 0 W/m 0,0 km/h (0 Bft) 95,74 %
19.07.2019 23:06 21,9 C 18,9 C 17,8 C 66 % 1013,4 hPa 0,0 l/m 0 min 0 min 0 W/m 0,0 km/h (0 Bft) 95,74 %
19.07.2019 23:04 21,9 C 18,9 C 17,8 C 65 % 1013,4 hPa 0,0 l/m 0 min 0 min 0 W/m 0,0 km/h (0 Bft) 95,74 %
19.07.2019 23:02 22,0 C 19,4 C 17,8 C 65 % 1013,4 hPa 0,0 l/m 0 min 0 min 0 W/m 0,0 km/h (0 Bft) 97,87 %
19.07.2019 23:00 22,1 C 19,4 C 17,8 C 64 % 1013,4 hPa 0,0 l/m 0 min 0 min 0 W/m 0,0 km/h (0 Bft) 95,65 %
19.07.2019 22:58 22,1 C 19,4 C 17,8 C 64 % 1013,4 hPa 0,0 l/m 0 min 0 min 0 W/m 0,0 km/h (0 Bft) 93,62 %
19.07.2019 22:56 22,2 C 19,4 C 17,8 C 64 % 1013,3 hPa 0,0 l/m 0 min 0 min 0 W/m 0,0 km/h (0 Bft) 91,49 %
19.07.2019 22:54 22,2 C 19,4 C 17,8 C 64 % 1013,4 hPa 0,0 l/m 0 min 0 min 0 W/m 3,2 km/h (1 Bft) 95,74 %
19.07.2019 22:52 22,3 C 20,0 C 17,8 C 63 % 1013,4 hPa 0,0 l/m 0 min 0 min 0 W/m 3,2 km/h (1 Bft) 97,87 %
19.07.2019 22:50 22,4 C 20,0 C 17,8 C 63 % 1013,4 hPa 0,0 l/m 0 min 0 min 0 W/m 0,0 km/h (0 Bft) 95,65 %
19.07.2019 22:48 22,4 C 20,0 C 17,8 C 64 % 1013,3 hPa 0,0 l/m 0 min 0 min 0 W/m 0,0 km/h (0 Bft) 97,87 %
19.07.2019 22:46 22,5 C 20,0 C 18,3 C 64 % 1013,4 hPa 0,0 l/m 0 min 0 min 0 W/m 0,0 km/h (0 Bft) 95,74 %
19.07.2019 22:44 22,6 C 20,0 C 18,3 C 64 % 1013,4 hPa 0,0 l/m 0 min 0 min 0 W/m 0,0 km/h (0 Bft) 95,74 %
19.07.2019 22:42 22,6 C 20,6 C 18,3 C 62 % 1013,4 hPa 0,0 l/m 0 min 0 min 0 W/m 0,0 km/h (0 Bft) 93,62 %
19.07.2019 22:40 22,7 C 20,6 C 18,3 C 62 % 1013,4 hPa 0,0 l/m 0 min 0 min 0 W/m 0,0 km/h (0 Bft) 93,62 %
19.07.2019 22:38 22,7 C 20,6 C 18,3 C 63 % 1013,3 hPa 0,0 l/m 0 min 0 min 0 W/m 0,0 km/h (0 Bft) 93,48 %
19.07.2019 22:36 22,8 C 20,0 C 18,3 C 64 % 1013,4 hPa 0,0 l/m 0 min 0 min 0 W/m 0,0 km/h (0 Bft) 95,74 %
19.07.2019 22:34 22,8 C 20,6 C 18,3 C 63 % 1013,4 hPa 0,0 l/m 0 min 0 min 0 W/m 0,0 km/h (0 Bft) 95,74 %
19.07.2019 22:32 22,9 C 20,6 C 18,9 C 63 % 1013,4 hPa 0,0 l/m 0 min 0 min 0 W/m 0,0 km/h (0 Bft) 95,74 %
19.07.2019 22:30 22,9 C 20,6 C 18,9 C 62 % 1013,4 hPa 0,0 l/m 0 min 0 min 0 W/m 0,0 km/h (0 Bft) 95,74 %
19.07.2019 22:28 23,0 C 20,6 C 18,9 C 63 % 1013,4 hPa 0,0 l/m 0 min 0 min 0 W/m 3,2 km/h (1 Bft) 95,74 %
19.07.2019 22:26 23,1 C 20,6 C 18,9 C 64 % 1013,4 hPa 0,0 l/m 0 min 0 min 0 W/m 3,2 km/h (1 Bft) 95,65 %
19.07.2019 22:24 23,2 C 20,6 C 18,9 C 65 % 1013,5 hPa 0,0 l/m 0 min 0 min 0 W/m 0,0 km/h (0 Bft) 95,74 %
19.07.2019 22:22 23,2 C 20,6 C 18,9 C 65 % 1013,5 hPa 0,0 l/m 0 min 0 min 0 W/m 0,0 km/h (0 Bft) 95,74 %
19.07.2019 22:20 23,3 C 20,6 C 18,9 C 65 % 1013,5 hPa 0,0 l/m 0 min 0 min 0 W/m 0,0 km/h (0 Bft) 93,62 %
19.07.2019 22:18 23,4 C 20,6 C 18,9 C 65 % 1013,5 hPa 0,0 l/m 0 min 0 min 0 W/m 0,0 km/h (0 Bft) 95,74 %
19.07.2019 22:16 23,4 C 20,6 C 19,4 C 65 % 1013,5 hPa 0,0 l/m 0 min 0 min 0 W/m 0,0 km/h (0 Bft) 95,74 %
19.07.2019 22:14 23,5 C 21,1 C 19,4 C 63 % 1013,5 hPa 0,0 l/m 0 min 0 min 0 W/m 0,0 km/h (0 Bft) 95,65 %
19.07.2019 22:12 23,6 C 21,1 C 19,4 C 63 % 1013,4 hPa 0,0 l/m 0 min 0 min 0 W/m 0,0 km/h (0 Bft) 97,87 %
19.07.2019 22:10 23,6 C 21,1 C 19,4 C 62 % 1013,5 hPa 0,0 l/m 0 min 0 min 0 W/m 0,0 km/h (0 Bft) 97,87 %
19.07.2019 22:08 23,6 C 21,7 C 19,4 C 60 % 1013,4 hPa 0,0 l/m 0 min 0 min 0 W/m 3,2 km/h (1 Bft) 97,87 %
19.07.2019 22:06 23,6 C 21,7 C 19,4 C 59 % 1013,5 hPa 0,0 l/m 0 min 0 min 0 W/m 3,2 km/h (1 Bft) 95,74 %
19.07.2019 22:04 23,7 C 21,7 C 19,4 C 60 % 1013,5 hPa 0,0 l/m 0 min 0 min 0 W/m 3,2 km/h (1 Bft) 93,62 %
19.07.2019 22:02 23,7 C 21,7 C 19,4 C 58 % 1013,5 hPa 0,0 l/m 0 min 0 min 0 W/m 0,0 km/h (0 Bft) 93,48 %
19.07.2019 22:00 23,8 C 21,7 C 20,0 C 59 % 1013,5 hPa 0,0 l/m 0 min 0 min 0 W/m 0,0 km/h (0 Bft) 97,87 %
19.07.2019 21:58 23,8 C 21,7 C 20,0 C 59 % 1013,4 hPa 0,0 l/m 0 min 0 min 0 W/m 0,0 km/h (0 Bft) 100,00 %
19.07.2019 21:56 23,8 C 21,7 C 20,0 C 60 % 1013,4 hPa 0,0 l/m 0 min 0 min 0 W/m 0,0 km/h (0 Bft) 97,87 %
19.07.2019 21:54 23,9 C 21,7 C 20,0 C 61 % 1013,4 hPa 0,0 l/m 0 min 0 min 0 W/m 0,0 km/h (0 Bft) 100,00 %
19.07.2019 21:52 23,9 C 21,7 C 20,0 C 60 % 1013,5 hPa 0,0 l/m 0 min 0 min 0 W/m 0,0 km/h (0 Bft) 100,00 %
19.07.2019 21:50 23,9 C 22,2 C 20,0 C 58 % 1013,4 hPa 0,0 l/m 0 min 0 min 0 W/m 0,0 km/h (0 Bft) 100,00 %
19.07.2019 21:48 23,9 C 22,2 C 20,0 C 56 % 1013,4 hPa 0,0 l/m 0 min 0 min 0 W/m 0,0 km/h (0 Bft) 100,00 %
19.07.2019 21:46 24,0 C 22,2 C 20,6 C 55 % 1013,4 hPa 0,0 l/m 0 min 0 min 0 W/m 6,4 km/h (2 Bft) 100,00 %
19.07.2019 21:44 24,0 C 22,2 C 20,6 C 56 % 1013,4 hPa 0,0 l/m 0 min 0 min 0 W/m 3,2 km/h (1 Bft) 100,00 %
19.07.2019 21:42 24,1 C 22,2 C 21,1 C 56 % 1013,4 hPa 0,0 l/m 0 min 0 min 0 W/m 3,2 km/h (1 Bft) 100,00 %
19.07.2019 21:40 24,1 C 22,2 C 21,1 C 55 % 1013,4 hPa 0,0 l/m 0 min 0 min 2 W/m 6,4 km/h (2 Bft) 100,00 %
19.07.2019 21:38 24,1 C 22,8 C 21,1 C 55 % 1013,3 hPa 0,0 l/m 0 min 0 min 5 W/m 6,4 km/h (2 Bft) 100,00 %
19.07.2019 21:36 24,1 C 22,8 C 21,1 C 54 % 1013,4 hPa 0,0 l/m 0 min 0 min 5 W/m 6,4 km/h (2 Bft) 100,00 %
19.07.2019 21:34 24,2 C 22,8 C 21,1 C 54 % 1013,4 hPa 0,0 l/m 0 min 0 min 5 W/m 3,2 km/h (1 Bft) 100,00 %
19.07.2019 21:32 24,2 C 22,8 C 21,7 C 54 % 1013,3 hPa 0,0 l/m 0 min 0 min 5 W/m 6,4 km/h (2 Bft) 100,00 %
19.07.2019 21:30 24,2 C 22,8 C 21,7 C 54 % 1013,3 hPa 0,0 l/m 0 min 0 min 8 W/m 6,4 km/h (2 Bft) 100,00 %
19.07.2019 21:28 24,2 C 22,8 C 21,1 C 54 % 1013,4 hPa 0,0 l/m 0 min 0 min 10 W/m 6,4 km/h (2 Bft) 97,83 %
19.07.2019 21:26 24,3 C 22,8 C 21,7 C 54 % 1013,3 hPa 0,0 l/m 0 min 0 min 12 W/m 3,2 km/h (1 Bft) 100,00 %
19.07.2019 21:24 24,3 C 22,8 C 21,7 C 54 % 1013,3 hPa 0,0 l/m 0 min 0 min 13 W/m 6,4 km/h (2 Bft) 100,00 %
19.07.2019 21:22 24,3 C 22,8 C 21,1 C 54 % 1013,4 hPa 0,0 l/m 0 min 0 min 14 W/m 3,2 km/h (1 Bft) 100,00 %
19.07.2019 21:20 24,3 C 22,8 C 21,7 C 54 % 1013,4 hPa 0,0 l/m 0 min 0 min 14 W/m 3,2 km/h (1 Bft) 100,00 %
19.07.2019 21:18 24,4 C 22,8 C 21,7 C 55 % 1013,3 hPa 0,0 l/m 0 min 0 min 13 W/m 3,2 km/h (1 Bft) 97,87 %
19.07.2019 21:16 24,4 C 22,8 C 21,7 C 56 % 1013,3 hPa 0,0 l/m 0 min 0 min 12 W/m 0,0 km/h (0 Bft) 97,83 %
19.07.2019 21:14 24,4 C 22,8 C 21,7 C 55 % 1013,4 hPa 0,0 l/m 0 min 0 min 12 W/m 3,2 km/h (1 Bft) 100,00 %
19.07.2019 21:12 24,4 C 22,8 C 22,2 C 54 % 1013,3 hPa 0,0 l/m 0 min 0 min 12 W/m 3,2 km/h (1 Bft) 100,00 %
19.07.2019 21:10 24,4 C 23,3 C 22,8 C 54 % 1013,3 hPa 0,0 l/m 0 min 0 min 13 W/m 3,2 km/h (1 Bft) 100,00 %
19.07.2019 21:08 24,4 C 23,3 C 22,8 C 53 % 1013,3 hPa 0,0 l/m 0 min 0 min 14 W/m 6,4 km/h (2 Bft) 100,00 %
19.07.2019 21:06 24,5 C 23,3 C 22,8 C 53 % 1013,3 hPa 0,0 l/m 0 min 0 min 15 W/m 9,7 km/h (2 Bft) 100,00 %
19.07.2019 21:04 24,5 C 23,3 C 22,8 C 53 % 1013,3 hPa 0,0 l/m 0 min 0 min 16 W/m 6,4 km/h (2 Bft) 100,00 %
19.07.2019 21:02 24,6 C 23,3 C 22,8 C 53 % 1013,3 hPa 0,0 l/m 0 min 0 min 16 W/m 6,4 km/h (2 Bft) 100,00 %
19.07.2019 21:00 24,6 C 23,3 C 22,8 C 53 % 1013,3 hPa 0,0 l/m 0 min 0 min 18 W/m 6,4 km/h (2 Bft) 100,00 %
19.07.2019 20:58 24,6 C 23,3 C 22,8 C 53 % 1013,3 hPa 0,0 l/m 0 min 0 min 18 W/m 9,7 km/h (2 Bft) 100,00 %
19.07.2019 20:56 24,6 C 23,3 C 22,8 C 53 % 1013,4 hPa 0,0 l/m 0 min 0 min 20 W/m 6,4 km/h (2 Bft) 100,00 %
19.07.2019 20:54 24,6 C 23,3 C 23,3 C 53 % 1013,3 hPa 0,0 l/m 0 min 0 min 22 W/m 6,4 km/h (2 Bft) 100,00 %
19.07.2019 20:52 24,7 C 23,3 C 23,3 C 53 % 1013,3 hPa 0,0 l/m 0 min 0 min 23 W/m 12,9 km/h (3 Bft) 100,00 %
19.07.2019 20:50 24,7 C 23,3 C 23,3 C 52 % 1013,4 hPa 0,0 l/m 0 min 0 min 23 W/m 9,7 km/h (2 Bft) 100,00 %
19.07.2019 20:48 24,7 C 23,3 C 23,3 C 52 % 1013,4 hPa 0,0 l/m 0 min 0 min 25 W/m 9,7 km/h (2 Bft) 100,00 %
19.07.2019 20:46 24,8 C 23,3 C 23,3 C 52 % 1013,4 hPa 0,0 l/m 0 min 0 min 27 W/m 9,7 km/h (2 Bft) 100,00 %
19.07.2019 20:44 24,8 C 23,3 C 23,3 C 52 % 1013,4 hPa 0,0 l/m 0 min 0 min 28 W/m 12,9 km/h (3 Bft) 100,00 %
19.07.2019 20:42 24,8 C 23,3 C 23,3 C 53 % 1013,5 hPa 0,0 l/m 0 min 0 min 30 W/m 6,4 km/h (2 Bft) 100,00 %
19.07.2019 20:40 24,8 C 23,9 C 23,3 C 53 % 1013,5 hPa 0,0 l/m 0 min 0 min 32 W/m 6,4 km/h (2 Bft) 97,83 %
19.07.2019 20:38 24,9 C 23,9 C 23,3 C 53 % 1013,5 hPa 0,0 l/m 0 min 0 min 35 W/m 9,7 km/h (2 Bft) 100,00 %
19.07.2019 20:36 24,9 C 23,9 C 23,3 C 53 % 1013,5 hPa 0,0 l/m 0 min 0 min 39 W/m 6,4 km/h (2 Bft) 97,87 %
19.07.2019 20:34 24,9 C 23,9 C 23,3 C 53 % 1013,4 hPa 0,0 l/m 0 min 0 min 42 W/m 6,4 km/h (2 Bft) 100,00 %
19.07.2019 20:32 25,0 C 23,9 C 22,8 C 54 % 1013,4 hPa 0,0 l/m 0 min 0 min 44 W/m 6,4 km/h (2 Bft) 100,00 %
19.07.2019 20:30 25,0 C 23,9 C 23,3 C 53 % 1013,4 hPa 0,0 l/m 0 min 0 min 44 W/m 3,2 km/h (1 Bft) 97,83 %
19.07.2019 20:28 25,0 C 23,9 C 23,3 C 53 % 1013,4 hPa 0,0 l/m 0 min 0 min 46 W/m 6,4 km/h (2 Bft) 100,00 %
19.07.2019 20:26 25,1 C 23,9 C 23,3 C 53 % 1013,4 hPa 0,0 l/m 0 min 0 min 49 W/m 6,4 km/h (2 Bft) 100,00 %
19.07.2019 20:24 25,1 C 23,9 C 23,3 C 52 % 1013,4 hPa 0,0 l/m 0 min 0 min 53 W/m 6,4 km/h (2 Bft) 97,87 %
19.07.2019 20:22 25,1 C 23,9 C 23,3 C 52 % 1013,3 hPa 0,0 l/m 0 min 0 min 60 W/m 3,2 km/h (1 Bft) 95,74 %
19.07.2019 20:20 25,1 C 23,9 C 23,3 C 52 % 1013,4 hPa 0,0 l/m 0 min 0 min 64 W/m 6,4 km/h (2 Bft) 95,74 %
19.07.2019 20:18 25,2 C 23,9 C 23,3 C 52 % 1013,5 hPa 0,0 l/m 0 min 0 min 67 W/m 3,2 km/h (1 Bft) 97,83 %
19.07.2019 20:16 25,2 C 23,9 C 23,3 C 51 % 1013,4 hPa 0,0 l/m 0 min 0 min 67 W/m 9,7 km/h (2 Bft) 97,87 %
19.07.2019 20:14 25,2 C 23,9 C 23,3 C 52 % 1013,4 hPa 0,0 l/m 0 min 0 min 66 W/m 3,2 km/h (1 Bft) 97,87 %
19.07.2019 20:12 25,3 C 23,9 C 23,3 C 52 % 1013,4 hPa 0,0 l/m 0 min 0 min 63 W/m 3,2 km/h (1 Bft) 97,87 %
19.07.2019 20:10 25,3 C 23,9 C 23,3 C 52 % 1013,3 hPa 0,0 l/m 0 min 0 min 63 W/m 3,2 km/h (1 Bft) 97,87 %
19.07.2019 20:08 25,3 C 23,9 C 23,9 C 52 % 1013,3 hPa 0,0 l/m 0 min 0 min 65 W/m 3,2 km/h (1 Bft) 97,87 %
19.07.2019 20:06 25,4 C 23,9 C 23,9 C 52 % 1013,3 hPa 0,0 l/m 0 min 0 min 69 W/m 6,4 km/h (2 Bft) 95,65 %
19.07.2019 20:04 25,4 C 23,9 C 23,9 C 51 % 1013,3 hPa 0,0 l/m 0 min 0 min 73 W/m 6,4 km/h (2 Bft) 93,62 %
19.07.2019 20:02 25,5 C 23,9 C 23,3 C 51 % 1013,4 hPa 0,0 l/m 0 min 0 min 75 W/m 16,1 km/h (3 Bft) 93,62 %
19.07.2019 20:00 25,6 C 24,4 C 23,9 C 51 % 1013,3 hPa 0,0 l/m 0 min 0 min 79 W/m 9,7 km/h (2 Bft) 93,62 %
19.07.2019 19:58 25,6 C 24,4 C 23,9 C 51 % 1013,2 hPa 0,0 l/m 0 min 0 min 85 W/m 6,4 km/h (2 Bft) 93,62 %
19.07.2019 19:56 25,7 C 24,4 C 23,9 C 51 % 1013,2 hPa 0,0 l/m 0 min 0 min 90 W/m 6,4 km/h (2 Bft) 91,49 %
19.07.2019 19:53 25,7 C 24,4 C 23,9 C 51 % 1013,2 hPa 0,0 l/m 0 min 0 min 90 W/m 12,9 km/h (3 Bft) 93,48 %
19.07.2019 19:52 25,8 C 24,4 C 23,9 C 51 % 1013,1 hPa 0,0 l/m 0 min 0 min 88 W/m 12,9 km/h (3 Bft) 93,62 %
19.07.2019 19:50 25,8 C 24,4 C 23,9 C 51 % 1013,2 hPa 0,0 l/m 0 min 0 min 90 W/m 6,4 km/h (2 Bft) 93,62 %
19.07.2019 19:48 25,8 C 24,4 C 23,9 C 51 % 1013,1 hPa 0,0 l/m 0 min 0 min 90 W/m 12,9 km/h (3 Bft) 93,62 %
19.07.2019 19:46 25,9 C 25,0 C 23,9 C 51 % 1013,1 hPa 0,0 l/m 0 min 0 min 93 W/m 9,7 km/h (2 Bft) 91,49 %
19.07.2019 19:44 25,9 C 25,0 C 23,9 C 52 % 1013,1 hPa 0,0 l/m 0 min 0 min 102 W/m 6,4 km/h (2 Bft) 87,23 %
19.07.2019 19:42 25,9 C 25,0 C 23,9 C 51 % 1013,1 hPa 0,0 l/m 0 min 0 min 110 W/m 6,4 km/h (2 Bft) 91,30 %
19.07.2019 19:40 25,9 C 25,6 C 23,3 C 51 % 1013,1 hPa 0,0 l/m 0 min 0 min 130 W/m 3,2 km/h (1 Bft) 93,62 %
19.07.2019 19:38 25,9 C 25,6 C 23,9 C 51 % 1013,1 hPa 0,0 l/m 2 min 0 min 159 W/m 6,4 km/h (2 Bft) 93,62 %
19.07.2019 19:36 25,9 C 25,6 C 23,9 C 51 % 1013,2 hPa 0,0 l/m 2 min 0 min 167 W/m 12,9 km/h (3 Bft) 93,62 %
19.07.2019 19:34 26,0 C 26,1 C 23,9 C 51 % 1013,1 hPa 0,0 l/m 2 min 0 min 174 W/m 6,4 km/h (2 Bft) 93,62 %
19.07.2019 19:32 26,0 C 26,7 C 23,9 C 52 % 1013,1 hPa 0,0 l/m 2 min 0 min 189 W/m 6,4 km/h (2 Bft) 95,65 %
19.07.2019 19:30 26,0 C 26,7 C 23,9 C 51 % 1013,1 hPa 0,0 l/m 2 min 0 min 207 W/m 6,4 km/h (2 Bft) 93,62 %
19.07.2019 19:28 26,0 C 26,7 C 24,4 C 50 % 1013,1 hPa 0,0 l/m 2 min 0 min 218 W/m 3,2 km/h (1 Bft) 93,62 %
19.07.2019 19:26 26,1 C 26,7 C 24,4 C 50 % 1013,2 hPa 0,0 l/m 2 min 0 min 211 W/m 9,7 km/h (2 Bft) 95,74 %
19.07.2019 19:24 26,1 C 26,7 C 24,4 C 50 % 1013,2 hPa 0,0 l/m 2 min 0 min 216 W/m 6,4 km/h (2 Bft) 95,74 %
19.07.2019 19:22 26,1 C 26,1 C 24,4 C 50 % 1013,2 hPa 0,0 l/m 2 min 0 min 215 W/m 6,4 km/h (2 Bft) 97,87 %
19.07.2019 19:20 26,1 C 26,1 C 24,4 C 49 % 1013,3 hPa 0,0 l/m 2 min 0 min 208 W/m 12,9 km/h (3 Bft) 97,83 %
19.07.2019 19:18 26,2 C 26,1 C 24,4 C 50 % 1013,3 hPa 0,0 l/m 2 min 0 min 203 W/m 12,9 km/h (3 Bft) 95,74 %
19.07.2019 19:16 26,2 C 26,1 C 24,4 C 49 % 1013,3 hPa 0,0 l/m 2 min 0 min 200 W/m 9,7 km/h (2 Bft) 95,74 %
19.07.2019 19:14 26,2 C 26,1 C 24,4 C 49 % 1013,3 hPa 0,0 l/m 2 min 0 min 193 W/m 12,9 km/h (3 Bft) 100,00 %
19.07.2019 19:12 26,2 C 26,1 C 24,4 C 49 % 1013,2 hPa 0,0 l/m 2 min 0 min 197 W/m 16,1 km/h (3 Bft) 95,74 %
19.07.2019 19:10 26,3 C 26,1 C 24,4 C 49 % 1013,2 hPa 0,0 l/m 2 min 0 min 211 W/m 19,3 km/h (3 Bft) 97,87 %
19.07.2019 19:08 26,3 C 26,1 C 24,4 C 49 % 1013,2 hPa 0,0 l/m 2 min 0 min 216 W/m 9,7 km/h (2 Bft) 97,83 %
19.07.2019 19:06 26,3 C 26,7 C 24,4 C 49 % 1013,2 hPa 0,0 l/m 2 min 0 min 228 W/m 12,9 km/h (3 Bft) 97,87 %
19.07.2019 19:04 26,3 C 26,7 C 24,4 C 49 % 1013,3 hPa 0,0 l/m 2 min 0 min 248 W/m 19,3 km/h (3 Bft) 97,87 %
19.07.2019 19:02 26,3 C 27,8 C 24,4 C 49 % 1013,3 hPa 0,0 l/m 2 min 0 min 285 W/m 12,9 km/h (3 Bft) 95,74 %
19.07.2019 19:00 26,3 C 27,8 C 24,4 C 49 % 1013,3 hPa 0,0 l/m 2 min 0 min 296 W/m 9,7 km/h (2 Bft) 97,87 %
19.07.2019 18:58 26,3 C 27,8 C 25,0 C 49 % 1013,3 hPa 0,0 l/m 2 min 0 min 305 W/m 16,1 km/h (3 Bft) 100,00 %
19.07.2019 18:56 26,3 C 28,3 C 25,0 C 49 % 1013,3 hPa 0,0 l/m 2 min 0 min 309 W/m 12,9 km/h (3 Bft) 100,00 %
19.07.2019 18:54 26,3 C 27,8 C 25,0 C 50 % 1013,4 hPa 0,0 l/m 2 min 0 min 312 W/m 16,1 km/h (3 Bft) 100,00 %
19.07.2019 18:52 26,2 C 28,3 C 25,0 C 49 % 1013,4 hPa 0,0 l/m 2 min 0 min 316 W/m 9,7 km/h (2 Bft) 95,74 %
19.07.2019 18:50 26,2 C 28,3 C 25,0 C 49 % 1013,4 hPa 0,0 l/m 2 min 0 min 337 W/m 9,7 km/h (2 Bft) 100,00 %
19.07.2019 18:48 26,3 C 28,9 C 25,0 C 50 % 1013,4 hPa 0,0 l/m 2 min 0 min 352 W/m 9,7 km/h (2 Bft) 100,00 %
19.07.2019 18:46 26,2 C 28,3 C 25,0 C 50 % 1013,4 hPa 0,0 l/m 2 min 0 min 379 W/m 6,4 km/h (2 Bft) 100,00 %
19.07.2019 18:44 26,3 C 28,3 C 25,0 C 50 % 1013,4 hPa 0,0 l/m 2 min 0 min 376 W/m 6,4 km/h (2 Bft) 97,83 %
19.07.2019 18:42 26,3 C 27,8 C 24,4 C 51 % 1013,4 hPa 0,0 l/m 2 min 0 min 344 W/m 6,4 km/h (2 Bft) 97,87 %
19.07.2019 18:40 26,3 C 26,7 C 24,4 C 50 % 1013,5 hPa 0,0 l/m 0 min 0 min 202 W/m 6,4 km/h (2 Bft) 100,00 %
19.07.2019 18:38 26,4 C 25,0 C 24,4 C 50 % 1013,4 hPa 0,0 l/m 0 min 0 min 131 W/m 9,7 km/h (2 Bft) 100,00 %
19.07.2019 18:36 26,4 C 25,0 C 24,4 C 50 % 1013,5 hPa 0,0 l/m 0 min 0 min 124 W/m 9,7 km/h (2 Bft) 100,00 %
19.07.2019 18:34 26,5 C 25,6 C 24,4 C 50 % 1013,4 hPa 0,0 l/m 0 min 0 min 120 W/m 12,9 km/h (3 Bft) 97,87 %
19.07.2019 18:32 26,5 C 25,6 C 24,4 C 50 % 1013,4 hPa 0,0 l/m 0 min 0 min 113 W/m 6,4 km/h (2 Bft) 100,00 %
19.07.2019 18:30 26,6 C 26,1 C 24,4 C 50 % 1013,4 hPa 0,0 l/m 0 min 0 min 122 W/m 6,4 km/h (2 Bft) 97,87 %
19.07.2019 18:28 26,6 C 27,2 C 25,0 C 49 % 1013,4 hPa 0,0 l/m 2 min 0 min 326 W/m 9,7 km/h (2 Bft) 100,00 %
19.07.2019 18:26 26,6 C 27,8 C 25,0 C 49 % 1013,4 hPa 0,0 l/m 2 min 0 min 392 W/m 6,4 km/h (2 Bft) 100,00 %
19.07.2019 18:24 26,6 C 28,9 C 25,0 C 49 % 1013,4 hPa 0,0 l/m 2 min 0 min 392 W/m 6,4 km/h (2 Bft) 97,87 %
19.07.2019 18:22 26,6 C 28,3 C 25,6 C 50 % 1013,4 hPa 0,0 l/m 2 min 0 min 392 W/m 6,4 km/h (2 Bft) 100,00 %
19.07.2019 18:20 26,6 C 28,9 C 25,6 C 49 % 1013,5 hPa 0,0 l/m 2 min 0 min 386 W/m 12,9 km/h (3 Bft) 100,00 %
19.07.2019 18:18 26,6 C 28,9 C 25,6 C 49 % 1013,5 hPa 0,0 l/m 2 min 0 min 433 W/m 12,9 km/h (3 Bft) 100,00 %
19.07.2019 18:16 26,5 C 28,9 C 25,6 C 49 % 1013,5 hPa 0,0 l/m 2 min 0 min 494 W/m 9,7 km/h (2 Bft) 100,00 %
19.07.2019 18:14 26,5 C 28,9 C 25,6 C 49 % 1013,6 hPa 0,0 l/m 2 min 0 min 504 W/m 9,7 km/h (2 Bft) 100,00 %
19.07.2019 18:12 26,5 C 28,9 C 25,6 C 50 % 1013,6 hPa 0,0 l/m 2 min 0 min 490 W/m 12,9 km/h (3 Bft) 100,00 %
19.07.2019 18:10 26,4 C 28,9 C 25,6 C 50 % 1013,6 hPa 0,0 l/m 2 min 0 min 465 W/m 12,9 km/h (3 Bft) 100,00 %
19.07.2019 18:08 26,4 C 29,4 C 26,1 C 50 % 1013,6 hPa 0,0 l/m 4 min 0 min 417 W/m 12,9 km/h (3 Bft) 100,00 %
19.07.2019 18:04 26,4 C 28,3 C 25,6 C 50 % 1013,6 hPa 0,0 l/m 2 min 0 min 383 W/m 12,9 km/h (3 Bft) 100,00 %
19.07.2019 18:02 26,4 C 28,9 C 25,6 C 50 % 1013,5 hPa 0,0 l/m 2 min 0 min 495 W/m 9,7 km/h (2 Bft) 97,87 %
19.07.2019 18:00 26,4 C 28,3 C 25,6 C 50 % 1013,6 hPa 0,0 l/m 2 min 0 min 448 W/m 9,7 km/h (2 Bft) 100,00 %
19.07.2019 17:58 26,4 C 27,8 C 25,6 C 50 % 1013,5 hPa 0,0 l/m 2 min 0 min 415 W/m 9,7 km/h (2 Bft) 100,00 %
19.07.2019 17:56 26,4 C 27,2 C 25,0 C 50 % 1013,6 hPa 0,0 l/m 2 min 0 min 375 W/m 9,7 km/h (2 Bft) 100,00 %
19.07.2019 17:54 26,4 C 27,2 C 25,6 C 50 % 1013,6 hPa 0,0 l/m 2 min 0 min 358 W/m 9,7 km/h (2 Bft) 100,00 %
19.07.2019 17:52 26,4 C 26,7 C 25,0 C 50 % 1013,6 hPa 0,0 l/m 2 min 0 min 334 W/m 12,9 km/h (3 Bft) 100,00 %
19.07.2019 17:50 26,4 C 26,7 C 25,0 C 50 % 1013,6 hPa 0,0 l/m 2 min 0 min 365 W/m 9,7 km/h (2 Bft) 100,00 %
19.07.2019 17:48 26,5 C 27,2 C 25,0 C 50 % 1013,7 hPa 0,0 l/m 2 min 0 min 344 W/m 6,4 km/h (2 Bft) 100,00 %
19.07.2019 17:46 26,5 C 26,7 C 25,0 C 50 % 1013,7 hPa 0,0 l/m 2 min 0 min 326 W/m 6,4 km/h (2 Bft) 100,00 %
19.07.2019 17:44 26,5 C 27,2 C 25,0 C 50 % 1013,7 hPa 0,0 l/m 2 min 0 min 314 W/m 9,7 km/h (2 Bft) 97,87 %
19.07.2019 17:42 26,6 C 27,2 C 25,0 C 50 % 1013,7 hPa 0,0 l/m 2 min 0 min 336 W/m 12,9 km/h (3 Bft) 100,00 %
19.07.2019 17:40 26,6 C 27,2 C 25,0 C 50 % 1013,7 hPa 0,0 l/m 2 min 0 min 314 W/m 12,9 km/h (3 Bft) 100,00 %
19.07.2019 17:38 26,6 C 27,2 C 25,0 C 50 % 1013,7 hPa 0,0 l/m 0 min 0 min 242 W/m 12,9 km/h (3 Bft) 100,00 %
19.07.2019 17:36 26,6 C 27,2 C 25,0 C 50 % 1013,6 hPa 0,0 l/m 2 min 0 min 331 W/m 9,7 km/h (2 Bft) 100,00 %
19.07.2019 17:34 26,6 C 28,9 C 25,6 C 50 % 1013,7 hPa 0,0 l/m 2 min 0 min 631 W/m 22,5 km/h (4 Bft) 97,87 %
19.07.2019 17:32 26,5 C 29,4 C 26,1 C 50 % 1013,6 hPa 0,0 l/m 2 min 0 min 596 W/m 12,9 km/h (3 Bft) 91,49 %
19.07.2019 17:30 26,4 C 30,0 C 26,1 C 49 % 1013,7 hPa 0,0 l/m 2 min 0 min 610 W/m 16,1 km/h (3 Bft) 97,87 %
19.07.2019 17:28 26,4 C 30,6 C 26,1 C 51 % 1013,6 hPa 0,0 l/m 2 min 0 min 611 W/m 9,7 km/h (2 Bft) 95,74 %
19.07.2019 17:26 26,3 C 29,4 C 25,6 C 51 % 1013,6 hPa 0,0 l/m 2 min 0 min 588 W/m 12,9 km/h (3 Bft) 93,62 %
19.07.2019 17:24 26,3 C 29,4 C 25,6 C 50 % 1013,6 hPa 0,0 l/m 2 min 0 min 554 W/m 16,1 km/h (3 Bft) 97,83 %
19.07.2019 17:22 26,3 C 28,9 C 25,6 C 52 % 1013,6 hPa 0,0 l/m 2 min 0 min 598 W/m 12,9 km/h (3 Bft) 97,87 %
19.07.2019 17:20 26,3 C 28,3 C 25,6 C 51 % 1013,7 hPa 0,0 l/m 2 min 0 min 625 W/m 16,1 km/h (3 Bft) 97,87 %
19.07.2019 17:18 26,3 C 28,9 C 25,6 C 52 % 1013,7 hPa 0,0 l/m 2 min 0 min 570 W/m 16,1 km/h (3 Bft) 97,87 %
19.07.2019 17:16 26,3 C 27,8 C 25,6 C 51 % 1013,7 hPa 0,0 l/m 2 min 0 min 536 W/m 19,3 km/h (3 Bft) 95,74 %
19.07.2019 17:14 26,3 C 28,3 C 25,0 C 52 % 1013,7 hPa 0,0 l/m 2 min 0 min 431 W/m 9,7 km/h (2 Bft) 97,87 %
19.07.2019 17:12 26,2 C 28,3 C 25,6 C 51 % 1013,7 hPa 0,0 l/m 2 min 0 min 494 W/m 12,9 km/h (3 Bft) 97,83 %
19.07.2019 17:10 26,2 C 29,4 C 25,6 C 52 % 1013,8 hPa 0,0 l/m 2 min 0 min 583 W/m 9,7 km/h (2 Bft) 95,74 %
19.07.2019 17:08 26,2 C 28,9 C 25,6 C 52 % 1013,9 hPa 0,0 l/m 2 min 0 min 625 W/m 16,1 km/h (3 Bft) 95,74 %
19.07.2019 17:06 26,1 C 30,6 C 26,1 C 53 % 1013,9 hPa 0,0 l/m 2 min 0 min 653 W/m 9,7 km/h (2 Bft) 95,74 %
19.07.2019 17:04 26,0 C 30,6 C 26,1 C 53 % 1013,9 hPa 0,0 l/m 2 min 0 min 650 W/m 9,7 km/h (2 Bft) 95,74 %
19.07.2019 17:02 25,9 C 30,0 C 26,1 C 53 % 1014,0 hPa 0,0 l/m 2 min 0 min 645 W/m 19,3 km/h (3 Bft) 95,74 %
19.07.2019 17:00 25,9 C 29,4 C 26,1 C 53 % 1013,9 hPa 0,0 l/m 2 min 0 min 684 W/m 9,7 km/h (2 Bft) 95,65 %
19.07.2019 16:58 25,8 C 28,9 C 26,1 C 53 % 1014,0 hPa 0,0 l/m 2 min 0 min 643 W/m 16,1 km/h (3 Bft) 95,74 %
19.07.2019 16:56 25,8 C 27,8 C 25,6 C 53 % 1014,0 hPa 0,0 l/m 2 min 0 min 599 W/m 12,9 km/h (3 Bft) 95,74 %
19.07.2019 16:54 25,7 C 28,9 C 26,1 C 54 % 1013,9 hPa 0,0 l/m 2 min 0 min 586 W/m 16,1 km/h (3 Bft) 95,74 %
19.07.2019 16:52 25,7 C 28,9 C 26,1 C 54 % 1014,0 hPa 0,0 l/m 2 min 0 min 488 W/m 9,7 km/h (2 Bft) 91,49 %
19.07.2019 16:50 25,6 C 28,3 C 26,1 C 55 % 1013,9 hPa 0,0 l/m 2 min 0 min 472 W/m 6,4 km/h (2 Bft) 97,87 %
19.07.2019 16:48 25,6 C 27,8 C 26,1 C 54 % 1013,9 hPa 0,0 l/m 2 min 0 min 476 W/m 9,7 km/h (2 Bft) 95,65 %
19.07.2019 16:46 25,6 C 27,2 C 25,6 C 54 % 1013,9 hPa 0,0 l/m 2 min 0 min 412 W/m 12,9 km/h (3 Bft) 95,74 %
19.07.2019 16:44 25,6 C 27,2 C 25,6 C 54 % 1013,9 hPa 0,0 l/m 2 min 0 min 392 W/m 9,7 km/h (2 Bft) 95,74 %
19.07.2019 16:42 25,6 C 27,2 C 26,1 C 54 % 1013,9 hPa 0,0 l/m 2 min 0 min 393 W/m 9,7 km/h (2 Bft) 95,74 %
19.07.2019 16:40 25,6 C 27,2 C 26,1 C 54 % 1013,9 hPa 0,0 l/m 2 min 0 min 423 W/m 9,7 km/h (2 Bft) 95,74 %
19.07.2019 16:38 25,5 C 26,7 C 25,6 C 54 % 1013,8 hPa 0,0 l/m 2 min 0 min 410 W/m 6,4 km/h (2 Bft) 93,48 %
19.07.2019 16:36 25,5 C 26,1 C 25,6 C 54 % 1013,9 hPa 0,0 l/m 2 min 0 min 384 W/m 12,9 km/h (3 Bft) 95,74 %
19.07.2019 16:34 25,6 C 26,1 C 25,6 C 52 % 1013,9 hPa 0,0 l/m 2 min 0 min 357 W/m 12,9 km/h (3 Bft) 95,74 %
19.07.2019 16:32 25,6 C 25,6 C 25,0 C 53 % 1013,9 hPa 0,0 l/m 0 min 0 min 330 W/m 19,3 km/h (3 Bft) 95,74 %
19.07.2019 16:30 25,7 C 26,1 C 25,6 C 53 % 1013,9 hPa 0,0 l/m 0 min 0 min 302 W/m 12,9 km/h (3 Bft) 95,74 %
19.07.2019 16:28 25,7 C 26,1 C 25,6 C 53 % 1013,9 hPa 0,0 l/m 0 min 0 min 299 W/m 9,7 km/h (2 Bft) 95,74 %
19.07.2019 16:26 25,7 C 26,7 C 25,6 C 53 % 1014,0 hPa 0,0 l/m 0 min 0 min 312 W/m 9,7 km/h (2 Bft) 93,48 %
19.07.2019 16:24 25,7 C 26,7 C 25,6 C 54 % 1014,0 hPa 0,0 l/m 0 min 0 min 330 W/m 9,7 km/h (2 Bft) 95,74 %
19.07.2019 16:22 25,8 C 26,7 C 25,6 C 53 % 1013,9 hPa 0,0 l/m 2 min 0 min 366 W/m 9,7 km/h (2 Bft) 95,74 %
19.07.2019 16:20 25,8 C 26,1 C 25,6 C 54 % 1013,9 hPa 0,0 l/m 2 min 0 min 367 W/m 12,9 km/h (3 Bft) 95,74 %
19.07.2019 16:18 25,8 C 26,7 C 25,6 C 53 % 1014,0 hPa 0,0 l/m 0 min 0 min 339 W/m 9,7 km/h (2 Bft) 95,74 %
19.07.2019 16:16 25,9 C 26,1 C 25,6 C 54 % 1013,9 hPa 0,0 l/m 0 min 0 min 311 W/m 9,7 km/h (2 Bft) 97,87 %
19.07.2019 16:14 25,9 C 26,1 C 25,6 C 53 % 1014,0 hPa 0,0 l/m 0 min 0 min 295 W/m 16,1 km/h (3 Bft) 97,83 %
19.07.2019 16:12 26,0 C 26,1 C 25,6 C 54 % 1013,9 hPa 0,0 l/m 0 min 0 min 290 W/m 6,4 km/h (2 Bft) 97,87 %
19.07.2019 16:10 26,1 C 26,1 C 25,6 C 53 % 1014,0 hPa 0,0 l/m 0 min 0 min 290 W/m 9,7 km/h (2 Bft) 97,87 %
19.07.2019 16:08 26,1 C 25,6 C 25,0 C 52 % 1014,0 hPa 0,0 l/m 0 min 0 min 280 W/m 12,9 km/h (3 Bft) 97,87 %
19.07.2019 16:06 26,2 C 26,1 C 25,6 C 52 % 1014,1 hPa 0,0 l/m 0 min 0 min 266 W/m 9,7 km/h (2 Bft) 95,74 %
19.07.2019 16:04 26,2 C 26,1 C 25,6 C 53 % 1014,1 hPa 0,0 l/m 0 min 0 min 259 W/m 19,3 km/h (3 Bft) 97,87 %
19.07.2019 16:02 26,3 C 26,1 C 25,6 C 53 % 1014,1 hPa 0,0 l/m 0 min 0 min 269 W/m 12,9 km/h (3 Bft) 97,83 %
19.07.2019 16:00 26,4 C 26,1 C 25,6 C 52 % 1014,0 hPa 0,0 l/m 0 min 0 min 293 W/m 16,1 km/h (3 Bft) 97,87 %
19.07.2019 15:58 26,4 C 26,7 C 26,1 C 52 % 1014,0 hPa 0,0 l/m 0 min 0 min 314 W/m 16,1 km/h (3 Bft) 97,87 %
19.07.2019 15:56 26,5 C 27,2 C 26,1 C 53 % 1014,0 hPa 0,0 l/m 0 min 0 min 318 W/m 6,4 km/h (2 Bft) 97,87 %
19.07.2019 15:54 26,6 C 26,7 C 26,1 C 53 % 1014,0 hPa 0,0 l/m 0 min 0 min 317 W/m 6,4 km/h (2 Bft) 97,87 %
19.07.2019 15:52 26,6 C 26,7 C 26,1 C 52 % 1014,1 hPa 0,0 l/m 0 min 0 min 314 W/m 6,4 km/h (2 Bft) 97,87 %
19.07.2019 15:50 26,7 C 26,7 C 26,1 C 51 % 1014,1 hPa 0,0 l/m 0 min 0 min 312 W/m 9,7 km/h (2 Bft) 100,00 %
19.07.2019 15:48 26,7 C 26,7 C 26,1 C 52 % 1014,1 hPa 0,0 l/m 0 min 0 min 323 W/m 9,7 km/h (2 Bft) 97,87 %
19.07.2019 15:46 26,8 C 27,2 C 26,1 C 52 % 1014,1 hPa 0,0 l/m 2 min 0 min 375 W/m 9,7 km/h (2 Bft) 93,62 %
19.07.2019 15:44 26,9 C 27,2 C 26,1 C 50 % 1014,1 hPa 0,0 l/m 2 min 0 min 443 W/m 16,1 km/h (3 Bft) 97,87 %
19.07.2019 15:42 26,9 C 28,3 C 26,7 C 50 % 1014,1 hPa 0,0 l/m 2 min 0 min 586 W/m 16,1 km/h (3 Bft) 97,87 %
19.07.2019 15:40 27,0 C 30,0 C 27,2 C 51 % 1014,0 hPa 0,0 l/m 2 min 0 min 700 W/m 22,5 km/h (4 Bft) 97,87 %
19.07.2019 15:38 26,9 C 31,1 C 27,8 C 51 % 1014,0 hPa 0,0 l/m 2 min 0 min 681 W/m 16,1 km/h (3 Bft) 97,83 %
19.07.2019 15:36 26,9 C 31,1 C 27,8 C 52 % 1014,0 hPa 0,0 l/m 2 min 0 min 708 W/m 9,7 km/h (2 Bft) 95,74 %
19.07.2019 15:34 26,9 C 29,4 C 27,2 C 50 % 1014,0 hPa 0,0 l/m 2 min 0 min 714 W/m 9,7 km/h (2 Bft) 100,00 %
19.07.2019 15:32 26,9 C 28,3 C 26,7 C 49 % 1014,0 hPa 0,0 l/m 2 min 0 min 522 W/m 16,1 km/h (3 Bft) 100,00 %
19.07.2019 15:30 26,9 C 29,4 C 27,8 C 50 % 1014,1 hPa 0,0 l/m 2 min 0 min 604 W/m 12,9 km/h (3 Bft) 100,00 %
19.07.2019 15:28 26,9 C 30,6 C 27,8 C 51 % 1014,1 hPa 0,0 l/m 2 min 0 min 694 W/m 9,7 km/h (2 Bft) 100,00 %
19.07.2019 15:26 26,9 C 30,6 C 27,8 C 50 % 1014,0 hPa 0,0 l/m 2 min 0 min 742 W/m 16,1 km/h (3 Bft) 100,00 %
19.07.2019 15:24 26,8 C 30,0 C 27,8 C 49 % 1014,0 hPa 0,0 l/m 2 min 0 min 600 W/m 6,4 km/h (2 Bft) 100,00 %
19.07.2019 15:22 26,8 C 30,0 C 27,8 C 51 % 1013,9 hPa 0,0 l/m 2 min 0 min 621 W/m 9,7 km/h (2 Bft) 100,00 %
19.07.2019 15:20 26,8 C 29,4 C 27,2 C 51 % 1014,0 hPa 0,0 l/m 2 min 0 min 786 W/m 12,9 km/h (3 Bft) 100,00 %
19.07.2019 15:18 26,8 C 30,0 C 27,2 C 52 % 1014,0 hPa 0,0 l/m 2 min 0 min 613 W/m 6,4 km/h (2 Bft) 100,00 %
19.07.2019 15:16 26,8 C 30,0 C 27,2 C 53 % 1014,0 hPa 0,0 l/m 2 min 0 min 606 W/m 9,7 km/h (2 Bft) 100,00 %
19.07.2019 15:14 26,8 C 28,9 C 26,7 C 52 % 1014,0 hPa 0,0 l/m 2 min 0 min 420 W/m 6,4 km/h (2 Bft) 100,00 %
19.07.2019 15:12 26,8 C 28,3 C 26,7 C 51 % 1014,1 hPa 0,0 l/m 2 min 0 min 494 W/m 9,7 km/h (2 Bft) 100,00 %
19.07.2019 15:10 26,9 C 28,3 C 26,7 C 51 % 1014,0 hPa 0,0 l/m 2 min 0 min 487 W/m 12,9 km/h (3 Bft) 100,00 %
19.07.2019 15:08 26,9 C 28,9 C 27,2 C 51 % 1014,0 hPa 0,0 l/m 2 min 0 min 530 W/m 16,1 km/h (3 Bft) 100,00 %
19.07.2019 15:06 26,9 C 29,4 C 27,2 C 52 % 1013,9 hPa 0,0 l/m 2 min 0 min 519 W/m 9,7 km/h (2 Bft) 100,00 %
19.07.2019 15:04 26,9 C 29,4 C 27,2 C 52 % 1014,0 hPa 0,0 l/m 2 min 0 min 791 W/m 16,1 km/h (3 Bft) 100,00 %
19.07.2019 15:02 26,9 C 30,6 C 27,8 C 52 % 1014,0 hPa 0,0 l/m 2 min 0 min 792 W/m 16,1 km/h (3 Bft) 100,00 %
19.07.2019 15:00 26,9 C 31,1 C 27,8 C 53 % 1014,0 hPa 0,0 l/m 2 min 0 min 624 W/m 16,1 km/h (3 Bft) 100,00 %
19.07.2019 14:58 26,8 C 32,2 C 27,8 C 54 % 1014,0 hPa 0,0 l/m 2 min 0 min 665 W/m 6,4 km/h (2 Bft) 100,00 %
19.07.2019 14:56 26,7 C 32,2 C 28,3 C 53 % 1014,1 hPa 0,0 l/m 2 min 0 min 749 W/m 9,7 km/h (2 Bft) 97,87 %
19.07.2019 14:54 26,6 C 32,2 C 28,9 C 55 % 1014,0 hPa 0,0 l/m 2 min 0 min 774 W/m 6,4 km/h (2 Bft) 97,87 %
19.07.2019 14:52 26,5 C 32,2 C 28,9 C 55 % 1014,0 hPa 0,0 l/m 2 min 0 min 738 W/m 6,4 km/h (2 Bft) 97,83 %
19.07.2019 14:50 26,4 C 31,7 C 29,4 C 53 % 1014,1 hPa 0,0 l/m 2 min 0 min 777 W/m 9,7 km/h (2 Bft) 95,74 %
19.07.2019 14:48 26,3 C 31,7 C 30,0 C 55 % 1014,1 hPa 0,0 l/m 2 min 0 min 833 W/m 12,9 km/h (3 Bft) 97,87 %
19.07.2019 14:46 26,2 C 30,6 C 28,9 C 53 % 1014,1 hPa 0,0 l/m 2 min 0 min 818 W/m 19,3 km/h (3 Bft) 95,74 %
19.07.2019 14:44 26,2 C 31,1 C 29,4 C 53 % 1014,1 hPa 0,0 l/m 2 min 0 min 802 W/m 9,7 km/h (2 Bft) 97,87 %
19.07.2019 14:42 26,1 C 30,6 C 29,4 C 53 % 1014,1 hPa 0,0 l/m 2 min 0 min 853 W/m 6,4 km/h (2 Bft) 97,87 %
19.07.2019 14:40 26,0 C 30,0 C 28,9 C 52 % 1014,1 hPa 0,0 l/m 2 min 0 min 832 W/m 6,4 km/h (2 Bft) 97,83 %
19.07.2019 14:38 26,0 C 30,0 C 28,9 C 53 % 1014,1 hPa 0,0 l/m 2 min 0 min 788 W/m 12,9 km/h (3 Bft) 97,87 %
19.07.2019 14:36 26,0 C 30,0 C 28,3 C 55 % 1014,0 hPa 0,0 l/m 2 min 0 min 527 W/m 16,1 km/h (3 Bft) 97,87 %
19.07.2019 14:34 25,9 C 30,0 C 28,3 C 58 % 1014,1 hPa 0,0 l/m 0 min 0 min 345 W/m 9,7 km/h (2 Bft) 95,74 %
19.07.2019 14:32 25,9 C 28,9 C 27,8 C 57 % 1014,1 hPa 0,0 l/m 0 min 0 min 331 W/m 6,4 km/h (2 Bft) 97,87 %
19.07.2019 14:30 25,9 C 29,4 C 28,3 C 56 % 1014,1 hPa 0,0 l/m 2 min 0 min 667 W/m 9,7 km/h (2 Bft) 97,87 %
19.07.2019 14:28 25,9 C 30,0 C 28,9 C 58 % 1014,2 hPa 0,0 l/m 2 min 0 min 656 W/m 6,4 km/h (2 Bft) 95,65 %
19.07.2019 14:26 25,9 C 29,4 C 28,3 C 56 % 1014,2 hPa 0,0 l/m 2 min 0 min 701 W/m 9,7 km/h (2 Bft) 97,87 %
19.07.2019 14:24 25,9 C 28,9 C 28,3 C 56 % 1014,2 hPa 0,0 l/m 2 min 0 min 520 W/m 9,7 km/h (2 Bft) 97,87 %
19.07.2019 14:22 25,9 C 28,3 C 27,8 C 56 % 1014,1 hPa 0,0 l/m 0 min 0 min 399 W/m 12,9 km/h (3 Bft) 97,87 %
19.07.2019 14:20 25,9 C 28,9 C 27,8 C 57 % 1014,1 hPa 0,0 l/m 2 min 0 min 518 W/m 6,4 km/h (2 Bft) 97,87 %
19.07.2019 14:18 25,9 C 27,8 C 27,8 C 56 % 1014,1 hPa 0,0 l/m 2 min 0 min 659 W/m 9,7 km/h (2 Bft) 97,87 %
19.07.2019 14:16 25,9 C 27,8 C 27,8 C 54 % 1014,2 hPa 0,0 l/m 2 min 0 min 642 W/m 16,1 km/h (3 Bft) 95,65 %
19.07.2019 14:14 25,9 C 28,3 C 28,9 C 55 % 1014,1 hPa 0,0 l/m 2 min 0 min 662 W/m 16,1 km/h (3 Bft) 97,87 %
19.07.2019 14:12 25,9 C 29,4 C 29,4 C 57 % 1014,1 hPa 0,0 l/m 2 min 0 min 681 W/m 9,7 km/h (2 Bft) 100,00 %
19.07.2019 14:10 25,9 C 29,4 C 29,4 C 56 % 1014,1 hPa 0,0 l/m 2 min 0 min 642 W/m 6,4 km/h (2 Bft) 100,00 %
19.07.2019 14:08 25,8 C 28,9 C 29,4 C 55 % 1014,1 hPa 0,0 l/m 2 min 0 min 652 W/m 12,9 km/h (3 Bft) 100,00 %
19.07.2019 14:06 25,8 C 30,6 C 30,6 C 56 % 1014,2 hPa 0,0 l/m 2 min 0 min 786 W/m 9,7 km/h (2 Bft) 100,00 %
19.07.2019 14:04 25,7 C 31,7 C 31,1 C 60 % 1014,2 hPa 0,0 l/m 2 min 0 min 787 W/m 9,7 km/h (2 Bft) 97,83 %
19.07.2019 14:02 25,5 C 31,7 C 31,1 C 59 % 1014,1 hPa 0,0 l/m 2 min 0 min 781 W/m 6,4 km/h (2 Bft) 97,87 %
19.07.2019 14:00 25,4 C 30,6 C 30,6 C 57 % 1014,2 hPa 0,0 l/m 2 min 0 min 810 W/m 16,1 km/h (3 Bft) 97,87 %
19.07.2019 13:58 25,3 C 30,6 C 31,1 C 57 % 1014,1 hPa 0,0 l/m 2 min 0 min 810 W/m 9,7 km/h (2 Bft) 100,00 %
19.07.2019 13:56 25,3 C 29,4 C 30,0 C 56 % 1014,1 hPa 0,0 l/m 2 min 0 min 866 W/m 16,1 km/h (3 Bft) 100,00 %
19.07.2019 13:54 25,2 C 29,4 C 30,6 C 56 % 1014,1 hPa 0,0 l/m 2 min 0 min 869 W/m 16,1 km/h (3 Bft) 100,00 %
19.07.2019 13:52 25,2 C 28,9 C 29,4 C 57 % 1014,2 hPa 0,0 l/m 2 min 0 min 884 W/m 9,7 km/h (2 Bft) 95,74 %
19.07.2019 13:50 25,2 C 28,3 C 28,9 C 58 % 1014,1 hPa 0,0 l/m 2 min 0 min 908 W/m 12,9 km/h (3 Bft) 100,00 %
19.07.2019 13:48 25,2 C 28,3 C 28,9 C 59 % 1014,2 hPa 0,0 l/m 2 min 0 min 791 W/m 9,7 km/h (2 Bft) 97,87 %
19.07.2019 13:46 25,2 C 26,1 C 26,1 C 58 % 1014,2 hPa 0,0 l/m 0 min 0 min 248 W/m 6,4 km/h (2 Bft) 97,87 %
19.07.2019 13:44 25,2 C 25,0 C 25,6 C 58 % 1014,2 hPa 0,0 l/m 0 min 0 min 226 W/m 16,1 km/h (3 Bft) 97,87 %
19.07.2019 13:42 25,3 C 26,1 C 27,2 C 58 % 1014,2 hPa 0,0 l/m 0 min 0 min 244 W/m 12,9 km/h (3 Bft) 97,83 %
19.07.2019 13:40 25,3 C 27,8 C 28,9 C 58 % 1014,2 hPa 0,0 l/m 2 min 0 min 817 W/m 16,1 km/h (3 Bft) 95,74 %
19.07.2019 13:38 25,3 C 31,1 C 32,2 C 60 % 1014,2 hPa 0,0 l/m 2 min 0 min 968 W/m 9,7 km/h (2 Bft) 95,74 %
19.07.2019 13:36 25,2 C 31,1 C 32,2 C 58 % 1014,2 hPa 0,0 l/m 2 min 0 min 1001 W/m 12,9 km/h (3 Bft) 95,74 %
19.07.2019 13:34 25,1 C 30,6 C 31,7 C 59 % 1014,2 hPa 0,0 l/m 2 min 0 min 1010 W/m 19,3 km/h (3 Bft) 95,74 %
19.07.2019 13:32 25,1 C 30,0 C 31,1 C 60 % 1014,2 hPa 0,0 l/m 2 min 0 min 999 W/m 22,5 km/h (4 Bft) 95,74 %
19.07.2019 13:30 25,1 C 29,4 C 31,1 C 59 % 1014,2 hPa 0,0 l/m 2 min 0 min 979 W/m 16,1 km/h (3 Bft) 95,65 %
19.07.2019 13:28 25,0 C 30,0 C 31,7 C 59 % 1014,3 hPa 0,0 l/m 2 min 0 min 1033 W/m 12,9 km/h (3 Bft) 95,74 %
19.07.2019 13:26 24,9 C 29,4 C 31,1 C 59 % 1014,2 hPa 0,0 l/m 2 min 0 min 786 W/m 9,7 km/h (2 Bft) 95,74 %
19.07.2019 13:24 24,9 C 28,3 C 28,9 C 58 % 1014,2 hPa 0,0 l/m 2 min 0 min 666 W/m 12,9 km/h (3 Bft) 95,74 %
19.07.2019 13:22 25,0 C 28,3 C 28,9 C 59 % 1014,2 hPa 0,0 l/m 2 min 0 min 942 W/m 12,9 km/h (3 Bft) 93,62 %
19.07.2019 13:20 25,0 C 27,2 C 27,8 C 61 % 1014,2 hPa 0,0 l/m 2 min 0 min 548 W/m 12,9 km/h (3 Bft) 93,48 %
19.07.2019 13:18 25,1 C 24,4 C 25,0 C 60 % 1014,2 hPa 0,0 l/m 0 min 0 min 203 W/m 9,7 km/h (2 Bft) 97,87 %
19.07.2019 13:16 25,2 C 25,0 C 25,6 C 60 % 1014,2 hPa 0,0 l/m 0 min 0 min 189 W/m 9,7 km/h (2 Bft) 95,74 %
19.07.2019 13:14 25,2 C 26,1 C 26,7 C 59 % 1014,1 hPa 0,0 l/m 0 min 0 min 207 W/m 9,7 km/h (2 Bft) 95,74 %
19.07.2019 13:12 25,3 C 27,2 C 28,3 C 60 % 1014,2 hPa 0,0 l/m 0 min 0 min 296 W/m 6,4 km/h (2 Bft) 95,74 %
19.07.2019 13:10 25,2 C 28,3 C 29,4 C 60 % 1014,1 hPa 0,0 l/m 2 min 0 min 885 W/m 12,9 km/h (3 Bft) 95,74 %
19.07.2019 13:08 25,2 C 28,9 C 30,6 C 61 % 1014,0 hPa 0,0 l/m 2 min 0 min 1042 W/m 19,3 km/h (3 Bft) 95,65 %
19.07.2019 13:06 25,2 C 28,9 C 31,1 C 59 % 1014,0 hPa 0,0 l/m 2 min 0 min 1006 W/m 25,7 km/h (4 Bft) 93,62 %
19.07.2019 13:04 25,2 C 30,0 C 32,2 C 60 % 1014,0 hPa 0,0 l/m 2 min 0 min 1010 W/m 19,3 km/h (3 Bft) 95,74 %
19.07.2019 13:02 25,1 C 29,4 C 31,1 C 60 % 1014,0 hPa 0,0 l/m 2 min 0 min 1023 W/m 12,9 km/h (3 Bft) 95,74 %
19.07.2019 13:00 25,1 C 28,3 C 30,6 C 59 % 1014,1 hPa 0,0 l/m 2 min 0 min 1000 W/m 22,5 km/h (4 Bft) 95,74 %
19.07.2019 12:58 25,1 C 30,0 C 31,1 C 60 % 1014,0 hPa 0,0 l/m 2 min 0 min 947 W/m 19,3 km/h (3 Bft) 95,74 %
19.07.2019 12:56 25,1 C 30,0 C 31,1 C 60 % 1014,1 hPa 0,0 l/m 2 min 0 min 956 W/m 22,5 km/h (4 Bft) 95,65 %
19.07.2019 12:54 25,1 C 30,0 C 30,6 C 60 % 1014,1 hPa 0,0 l/m 2 min 0 min 948 W/m 12,9 km/h (3 Bft) 95,74 %
19.07.2019 12:52 25,1 C 28,9 C 29,4 C 60 % 1014,2 hPa 0,0 l/m 2 min 0 min 915 W/m 9,7 km/h (2 Bft) 97,87 %
19.07.2019 12:50 25,1 C 27,8 C 28,3 C 59 % 1014,2 hPa 0,0 l/m 2 min 0 min 781 W/m 9,7 km/h (2 Bft) 95,74 %
19.07.2019 12:48 25,2 C 26,7 C 26,7 C 60 % 1014,2 hPa 0,0 l/m 0 min 0 min 191 W/m 12,9 km/h (3 Bft) 97,87 %
19.07.2019 12:46 25,2 C 27,2 C 27,8 C 62 % 1014,2 hPa 0,0 l/m 0 min 0 min 244 W/m 6,4 km/h (2 Bft) 97,87 %
19.07.2019 12:44 25,2 C 29,4 C 30,6 C 61 % 1014,1 hPa 0,0 l/m 2 min 0 min 909 W/m 12,9 km/h (3 Bft) 97,83 %
19.07.2019 12:42 25,1 C 29,4 C 30,6 C 61 % 1014,2 hPa 0,0 l/m 2 min 0 min 826 W/m 16,1 km/h (3 Bft) 97,87 %
19.07.2019 12:40 25,1 C 31,1 C 31,1 C 62 % 1014,2 hPa 0,0 l/m 2 min 0 min 811 W/m 12,9 km/h (3 Bft) 100,00 %
19.07.2019 12:38 25,0 C 30,6 C 30,6 C 61 % 1014,2 hPa 0,0 l/m 2 min 0 min 650 W/m 9,7 km/h (2 Bft) 100,00 %
19.07.2019 12:36 24,9 C 30,6 C 30,6 C 63 % 1014,2 hPa 0,0 l/m 2 min 0 min 921 W/m 6,4 km/h (2 Bft) 97,87 %
19.07.2019 12:34 24,7 C 30,6 C 30,6 C 63 % 1014,3 hPa 0,0 l/m 2 min 0 min 970 W/m 9,7 km/h (2 Bft) 95,74 %
19.07.2019 12:32 24,6 C 29,4 C 30,6 C 63 % 1014,3 hPa 0,0 l/m 2 min 0 min 983 W/m 16,1 km/h (3 Bft) 97,83 %
19.07.2019 12:30 24,6 C 28,3 C 29,4 C 61 % 1014,3 hPa 0,0 l/m 2 min 0 min 994 W/m 16,1 km/h (3 Bft) 100,00 %
19.07.2019 12:28 24,5 C 27,8 C 29,4 C 62 % 1014,3 hPa 0,0 l/m 2 min 0 min 1020 W/m 29,0 km/h (5 Bft) 97,87 %
19.07.2019 12:26 24,4 C 31,1 C 31,7 C 63 % 1014,2 hPa 0,0 l/m 2 min 0 min 1069 W/m 12,9 km/h (3 Bft) 100,00 %
19.07.2019 12:24 24,3 C 31,1 C 31,7 C 63 % 1014,3 hPa 0,0 l/m 2 min 0 min 1049 W/m 12,9 km/h (3 Bft) 97,87 %
19.07.2019 12:22 24,1 C 30,6 C 31,1 C 63 % 1014,3 hPa 0,0 l/m 2 min 0 min 998 W/m 19,3 km/h (3 Bft) 97,87 %
19.07.2019 12:20 24,0 C 31,1 C 30,6 C 64 % 1014,2 hPa 0,0 l/m 2 min 0 min 990 W/m 12,9 km/h (3 Bft) 97,83 %
19.07.2019 12:18 23,9 C 29,4 C 29,4 C 63 % 1014,3 hPa 0,0 l/m 2 min 0 min 983 W/m 19,3 km/h (3 Bft) 97,87 %
19.07.2019 12:16 23,8 C 29,4 C 29,4 C 65 % 1014,2 hPa 0,0 l/m 2 min 0 min 1007 W/m 9,7 km/h (2 Bft) 97,87 %
19.07.2019 12:14 23,8 C 27,8 C 27,8 C 64 % 1014,3 hPa 0,0 l/m 2 min 0 min 840 W/m 9,7 km/h (2 Bft) 95,74 %
19.07.2019 12:12 23,8 C 25,0 C 25,0 C 63 % 1014,3 hPa 0,0 l/m 0 min 0 min 259 W/m 12,9 km/h (3 Bft) 97,87 %
19.07.2019 12:10 23,9 C 24,4 C 25,0 C 63 % 1014,4 hPa 0,0 l/m 0 min 0 min 270 W/m 16,1 km/h (3 Bft) 97,87 %
19.07.2019 12:08 23,9 C 25,6 C 26,1 C 63 % 1014,4 hPa 0,0 l/m 4 min 0 min 651 W/m 19,3 km/h (3 Bft) 97,85 %
19.07.2019 12:04 23,7 C 28,3 C 28,9 C 64 % 1014,3 hPa 0,0 l/m 2 min 0 min 894 W/m 9,7 km/h (2 Bft) 97,87 %
19.07.2019 12:02 23,7 C 27,2 C 27,8 C 64 % 1014,3 hPa 0,0 l/m 2 min 0 min 709 W/m 12,9 km/h (3 Bft) 95,74 %
19.07.2019 12:00 23,7 C 25,6 C 25,6 C 63 % 1014,3 hPa 0,0 l/m 2 min 0 min 565 W/m 19,3 km/h (3 Bft) 95,74 %
19.07.2019 11:58 23,8 C 24,4 C 24,4 C 62 % 1014,2 hPa 0,0 l/m 2 min 0 min 485 W/m 25,7 km/h (4 Bft) 95,74 %
19.07.2019 11:56 23,9 C 25,0 C 26,1 C 62 % 1014,3 hPa 0,0 l/m 2 min 0 min 452 W/m 25,7 km/h (4 Bft) 97,83 %
19.07.2019 11:54 23,8 C 28,3 C 28,3 C 63 % 1014,3 hPa 0,0 l/m 2 min 0 min 438 W/m 12,9 km/h (3 Bft) 97,87 %
19.07.2019 11:52 23,7 C 30,0 C 30,0 C 64 % 1014,3 hPa 0,0 l/m 2 min 0 min 506 W/m 16,1 km/h (3 Bft) 97,87 %
19.07.2019 11:50 23,6 C 30,0 C 30,0 C 64 % 1014,2 hPa 0,0 l/m 2 min 0 min 943 W/m 25,7 km/h (4 Bft) 97,87 %
19.07.2019 11:48 23,4 C 30,6 C 31,1 C 63 % 1014,3 hPa 0,0 l/m 2 min 0 min 1011 W/m 12,9 km/h (3 Bft) 95,74 %
19.07.2019 11:46 23,3 C 29,4 C 30,0 C 64 % 1014,3 hPa 0,0 l/m 2 min 0 min 936 W/m 12,9 km/h (3 Bft) 97,83 %
19.07.2019 11:44 23,1 C 28,9 C 30,0 C 65 % 1014,3 hPa 0,0 l/m 2 min 0 min 851 W/m 9,7 km/h (2 Bft) 97,87 %
19.07.2019 11:42 23,0 C 28,3 C 29,4 C 65 % 1014,2 hPa 0,0 l/m 2 min 0 min 882 W/m 22,5 km/h (4 Bft) 97,87 %
19.07.2019 11:40 22,9 C 27,8 C 28,9 C 65 % 1014,2 hPa 0,0 l/m 2 min 0 min 827 W/m 12,9 km/h (3 Bft) 97,87 %
19.07.2019 11:38 22,7 C 27,2 C 27,8 C 64 % 1014,2 hPa 0,0 l/m 2 min 0 min 408 W/m 16,1 km/h (3 Bft) 100,00 %
19.07.2019 11:36 22,7 C 26,1 C 26,7 C 64 % 1014,2 hPa 0,0 l/m 2 min 0 min 408 W/m 9,7 km/h (2 Bft) 97,87 %
19.07.2019 11:34 22,7 C 25,0 C 25,6 C 64 % 1014,2 hPa 0,0 l/m 2 min 0 min 457 W/m 9,7 km/h (2 Bft) 100,00 %
19.07.2019 11:32 22,6 C 26,1 C 26,1 C 64 % 1014,2 hPa 0,0 l/m 2 min 0 min 671 W/m 16,1 km/h (3 Bft) 100,00 %
19.07.2019 11:30 22,6 C 25,6 C 26,1 C 63 % 1014,2 hPa 0,0 l/m 2 min 0 min 616 W/m 12,9 km/h (3 Bft) 100,00 %
19.07.2019 11:28 22,6 C 25,0 C 25,0 C 64 % 1014,2 hPa 0,0 l/m 2 min 0 min 401 W/m 12,9 km/h (3 Bft) 100,00 %
19.07.2019 11:26 22,6 C 25,6 C 25,6 C 65 % 1014,2 hPa 0,0 l/m 2 min 0 min 480 W/m 16,1 km/h (3 Bft) 100,00 %
19.07.2019 11:24 22,4 C 25,6 C 25,6 C 64 % 1014,2 hPa 0,0 l/m 2 min 0 min 603 W/m 9,7 km/h (2 Bft) 100,00 %
19.07.2019 11:22 22,4 C 26,1 C 26,1 C 64 % 1014,2 hPa 0,0 l/m 2 min 0 min 695 W/m 16,1 km/h (3 Bft) 100,00 %
19.07.2019 11:20 22,3 C 26,1 C 25,6 C 64 % 1014,2 hPa 0,0 l/m 2 min 0 min 549 W/m 6,4 km/h (2 Bft) 100,00 %
19.07.2019 11:18 22,3 C 23,9 C 23,9 C 63 % 1014,2 hPa 0,0 l/m 2 min 0 min 421 W/m 19,3 km/h (3 Bft) 100,00 %
19.07.2019 11:16 22,3 C 23,3 C 23,3 C 62 % 1014,3 hPa 0,0 l/m 2 min 0 min 412 W/m 19,3 km/h (3 Bft) 97,87 %
19.07.2019 11:14 22,3 C 23,3 C 23,9 C 62 % 1014,2 hPa 0,0 l/m 2 min 0 min 451 W/m 29,0 km/h (5 Bft) 100,00 %
19.07.2019 11:12 22,4 C 23,9 C 24,4 C 63 % 1014,2 hPa 0,0 l/m 2 min 0 min 507 W/m 22,5 km/h (4 Bft) 97,87 %
19.07.2019 11:10 22,3 C 23,9 C 23,9 C 62 % 1014,2 hPa 0,0 l/m 2 min 0 min 458 W/m 16,1 km/h (3 Bft) 100,00 %
19.07.2019 11:08 22,4 C 23,9 C 23,9 C 62 % 1014,2 hPa 0,0 l/m 2 min 0 min 509 W/m 25,7 km/h (4 Bft) 100,00 %
19.07.2019 11:06 22,4 C 24,4 C 24,4 C 62 % 1014,2 hPa 0,0 l/m 2 min 0 min 611 W/m 22,5 km/h (4 Bft) 100,00 %
19.07.2019 11:04 22,4 C 25,0 C 24,4 C 63 % 1014,1 hPa 0,0 l/m 2 min 0 min 527 W/m 25,7 km/h (4 Bft) 100,00 %
19.07.2019 11:02 22,4 C 25,0 C 24,4 C 64 % 1014,2 hPa 0,0 l/m 2 min 0 min 354 W/m 22,5 km/h (4 Bft) 97,87 %
19.07.2019 11:00 22,4 C 24,4 C 24,4 C 65 % 1014,2 hPa 0,0 l/m 2 min 0 min 396 W/m 19,3 km/h (3 Bft) 100,00 %
19.07.2019 10:58 22,3 C 25,0 C 25,0 C 66 % 1014,2 hPa 0,0 l/m 2 min 0 min 404 W/m 9,7 km/h (2 Bft) 100,00 %
19.07.2019 10:56 22,2 C 25,0 C 24,4 C 65 % 1014,1 hPa 0,0 l/m 2 min 0 min 379 W/m 12,9 km/h (3 Bft) 97,83 %
19.07.2019 10:54 22,2 C 25,0 C 23,9 C 65 % 1014,1 hPa 0,0 l/m 2 min 0 min 387 W/m 19,3 km/h (3 Bft) 100,00 %
19.07.2019 10:52 22,1 C 25,0 C 24,4 C 65 % 1014,1 hPa 0,0 l/m 2 min 0 min 407 W/m 9,7 km/h (2 Bft) 100,00 %
19.07.2019 10:50 22,1 C 25,0 C 24,4 C 65 % 1014,1 hPa 0,0 l/m 2 min 0 min 427 W/m 9,7 km/h (2 Bft) 100,00 %
19.07.2019 10:48 22,1 C 24,4 C 23,9 C 64 % 1014,2 hPa 0,0 l/m 2 min 0 min 550 W/m 9,7 km/h (2 Bft) 100,00 %
19.07.2019 10:46 22,1 C 24,4 C 23,9 C 65 % 1014,1 hPa 0,0 l/m 2 min 0 min 489 W/m 16,1 km/h (3 Bft) 97,87 %
19.07.2019 10:44 22,1 C 23,9 C 23,3 C 66 % 1014,2 hPa 0,0 l/m 2 min 0 min 440 W/m 19,3 km/h (3 Bft) 100,00 %
19.07.2019 10:42 22,1 C 24,4 C 23,9 C 68 % 1014,1 hPa 0,0 l/m 2 min 0 min 429 W/m 9,7 km/h (2 Bft) 100,00 %
19.07.2019 10:40 22,1 C 25,0 C 23,9 C 69 % 1014,1 hPa 0,0 l/m 2 min 0 min 459 W/m 6,4 km/h (2 Bft) 100,00 %
19.07.2019 10:38 22,1 C 23,9 C 23,3 C 68 % 1014,1 hPa 0,0 l/m 2 min 0 min 442 W/m 19,3 km/h (3 Bft) 100,00 %
19.07.2019 10:36 22,1 C 23,3 C 22,8 C 69 % 1014,1 hPa 0,0 l/m 0 min 0 min 282 W/m 16,1 km/h (3 Bft) 97,87 %
19.07.2019 10:34 22,2 C 22,2 C 21,7 C 68 % 1014,1 hPa 0,0 l/m 0 min 0 min 196 W/m 9,7 km/h (2 Bft) 95,74 %
19.07.2019 10:32 22,2 C 22,8 C 22,2 C 69 % 1014,1 hPa 0,0 l/m 0 min 0 min 216 W/m 12,9 km/h (3 Bft) 97,83 %
19.07.2019 10:30 22,3 C 23,9 C 23,3 C 71 % 1014,1 hPa 0,0 l/m 0 min 0 min 214 W/m 9,7 km/h (2 Bft) 97,87 %
19.07.2019 10:28 22,3 C 23,9 C 23,3 C 70 % 1014,1 hPa 0,0 l/m 2 min 0 min 326 W/m 9,7 km/h (2 Bft) 97,87 %
19.07.2019 10:26 22,3 C 24,4 C 24,4 C 71 % 1014,1 hPa 0,0 l/m 2 min 0 min 519 W/m 9,7 km/h (2 Bft) 97,87 %
19.07.2019 10:24 22,3 C 25,6 C 25,6 C 72 % 1014,1 hPa 0,0 l/m 2 min 0 min 603 W/m 12,9 km/h (3 Bft) 97,87 %
19.07.2019 10:22 22,2 C 27,2 C 27,8 C 74 % 1014,1 hPa 0,0 l/m 2 min 0 min 603 W/m 25,7 km/h (4 Bft) 97,83 %
19.07.2019 10:20 22,1 C 28,3 C 28,3 C 74 % 1014,0 hPa 0,0 l/m 2 min 0 min 732 W/m 16,1 km/h (3 Bft) 100,00 %
19.07.2019 10:18 21,9 C 28,3 C 27,8 C 75 % 1014,1 hPa 0,0 l/m 2 min 0 min 737 W/m 9,7 km/h (2 Bft) 97,87 %
19.07.2019 10:16 21,8 C 26,7 C 26,7 C 75 % 1014,0 hPa 0,0 l/m 2 min 0 min 683 W/m 16,1 km/h (3 Bft) 97,87 %
19.07.2019 10:14 21,7 C 26,1 C 25,6 C 75 % 1014,0 hPa 0,0 l/m 2 min 0 min 682 W/m 6,4 km/h (2 Bft) 97,87 %
19.07.2019 10:12 21,6 C 24,4 C 24,4 C 75 % 1013,9 hPa 0,0 l/m 0 min 0 min 258 W/m 9,7 km/h (2 Bft) 97,87 %
19.07.2019 10:10 21,6 C 22,8 C 22,2 C 74 % 1014,0 hPa 0,0 l/m 0 min 0 min 202 W/m 6,4 km/h (2 Bft) 97,83 %
19.07.2019 10:08 21,6 C 22,8 C 22,8 C 74 % 1014,0 hPa 0,0 l/m 0 min 0 min 223 W/m 9,7 km/h (2 Bft) 97,87 %
19.07.2019 10:06 21,5 C 23,9 C 23,9 C 74 % 1014,0 hPa 0,0 l/m 0 min 0 min 241 W/m 9,7 km/h (2 Bft) 95,74 %
19.07.2019 10:04 21,5 C 23,9 C 24,4 C 74 % 1014,0 hPa 0,0 l/m 2 min 0 min 346 W/m 12,9 km/h (3 Bft) 95,74 %
19.07.2019 10:02 21,4 C 23,3 C 23,3 C 74 % 1014,1 hPa 0,0 l/m 2 min 0 min 375 W/m 16,1 km/h (3 Bft) 97,87 %
19.07.2019 10:00 21,4 C 22,8 C 22,8 C 74 % 1014,1 hPa 0,0 l/m 2 min 0 min 389 W/m 19,3 km/h (3 Bft) 97,87 %
19.07.2019 09:58 21,4 C 22,2 C 21,7 C 74 % 1014,1 hPa 0,0 l/m 0 min 0 min 238 W/m 12,9 km/h (3 Bft) 97,83 %
19.07.2019 09:56 21,4 C 21,1 C 21,1 C 75 % 1014,1 hPa 0,0 l/m 0 min 0 min 166 W/m 19,3 km/h (3 Bft) 93,62 %
19.07.2019 09:54 21,4 C 22,2 C 22,2 C 75 % 1014,1 hPa 0,0 l/m 0 min 0 min 175 W/m 16,1 km/h (3 Bft) 93,62 %
19.07.2019 09:52 21,4 C 23,3 C 23,3 C 76 % 1014,0 hPa 0,0 l/m 0 min 0 min 232 W/m 12,9 km/h (3 Bft) 93,62 %
19.07.2019 09:50 21,3 C 24,4 C 24,4 C 77 % 1014,0 hPa 0,0 l/m 2 min 0 min 479 W/m 12,9 km/h (3 Bft) 93,62 %
19.07.2019 09:48 21,2 C 26,1 C 26,7 C 78 % 1013,9 hPa 0,0 l/m 2 min 0 min 707 W/m 9,7 km/h (2 Bft) 93,62 %
19.07.2019 09:46 21,0 C 27,2 C 26,7 C 78 % 1014,0 hPa 0,0 l/m 2 min 0 min 641 W/m 9,7 km/h (2 Bft) 95,65 %
19.07.2019 09:44 20,9 C 26,7 C 26,1 C 78 % 1014,0 hPa 0,0 l/m 2 min 0 min 664 W/m 6,4 km/h (2 Bft) 95,74 %
19.07.2019 09:42 20,8 C 25,0 C 23,9 C 79 % 1014,0 hPa 0,0 l/m 2 min 0 min 411 W/m 9,7 km/h (2 Bft) 89,36 %
19.07.2019 09:40 20,7 C 23,9 C 22,8 C 79 % 1014,1 hPa 0,0 l/m 2 min 0 min 473 W/m 6,4 km/h (2 Bft) 95,74 %
19.07.2019 09:38 20,6 C 24,4 C 23,9 C 79 % 1014,0 hPa 0,0 l/m 2 min 0 min 516 W/m 6,4 km/h (2 Bft) 93,62 %
19.07.2019 09:36 20,6 C 24,4 C 23,9 C 78 % 1014,0 hPa 0,0 l/m 2 min 0 min 451 W/m 6,4 km/h (2 Bft) 95,65 %
19.07.2019 09:34 20,5 C 22,8 C 22,2 C 79 % 1014,1 hPa 0,0 l/m 0 min 0 min 268 W/m 12,9 km/h (3 Bft) 93,62 %
19.07.2019 09:32 20,5 C 22,8 C 22,2 C 79 % 1014,0 hPa 0,0 l/m 2 min 0 min 330 W/m 12,9 km/h (3 Bft) 95,74 %
19.07.2019 09:30 20,5 C 21,7 C 21,1 C 79 % 1014,1 hPa 0,0 l/m 0 min 0 min 262 W/m 9,7 km/h (2 Bft) 97,87 %
19.07.2019 09:28 20,5 C 21,7 C 20,6 C 80 % 1014,1 hPa 0,0 l/m 0 min 0 min 173 W/m 9,7 km/h (2 Bft) 95,74 %
19.07.2019 09:26 20,5 C 21,7 C 20,6 C 80 % 1014,0 hPa 0,0 l/m 0 min 0 min 174 W/m 6,4 km/h (2 Bft) 93,62 %
19.07.2019 09:24 20,5 C 20,6 C 20,0 C 79 % 1014,0 hPa 0,0 l/m 0 min 0 min 138 W/m 9,7 km/h (2 Bft) 95,65 %
19.07.2019 09:22 20,5 C 20,6 C 20,0 C 79 % 1014,0 hPa 0,0 l/m 0 min 0 min 105 W/m 6,4 km/h (2 Bft) 93,62 %
19.07.2019 09:20 20,5 C 20,6 C 20,0 C 80 % 1014,0 hPa 0,0 l/m 0 min 0 min 110 W/m 9,7 km/h (2 Bft) 95,74 %
19.07.2019 09:18 20,5 C 21,1 C 20,6 C 80 % 1013,9 hPa 0,0 l/m 0 min 0 min 136 W/m 6,4 km/h (2 Bft) 93,62 %
19.07.2019 09:16 20,4 C 21,1 C 20,6 C 80 % 1013,9 hPa 0,0 l/m 0 min 0 min 189 W/m 12,9 km/h (3 Bft) 95,74 %
19.07.2019 09:14 20,4 C 22,2 C 21,1 C 81 % 1013,9 hPa 0,0 l/m 0 min 0 min 216 W/m 12,9 km/h (3 Bft) 95,74 %
19.07.2019 09:12 20,4 C 22,8 C 22,2 C 81 % 1014,0 hPa 0,0 l/m 0 min 0 min 217 W/m 12,9 km/h (3 Bft) 97,83 %
19.07.2019 09:10 20,3 C 21,7 C 21,1 C 82 % 1013,9 hPa 0,0 l/m 0 min 0 min 199 W/m 9,7 km/h (2 Bft) 97,87 %
19.07.2019 09:08 20,3 C 22,8 C 22,8 C 82 % 1014,0 hPa 0,0 l/m 0 min 0 min 162 W/m 12,9 km/h (3 Bft) 97,87 %
19.07.2019 09:06 20,2 C 21,7 C 22,2 C 82 % 1013,9 hPa 0,0 l/m 0 min 0 min 162 W/m 9,7 km/h (2 Bft) 97,87 %
19.07.2019 09:04 20,2 C 21,1 C 21,1 C 83 % 1013,8 hPa 0,0 l/m 0 min 0 min 129 W/m 12,9 km/h (3 Bft) 97,87 %
19.07.2019 09:02 20,1 C 22,2 C 21,7 C 83 % 1013,7 hPa 0,0 l/m 0 min 0 min 147 W/m 6,4 km/h (2 Bft) 97,87 %
19.07.2019 09:00 20,0 C 22,8 C 22,8 C 83 % 1013,8 hPa 0,0 l/m 0 min 0 min 222 W/m 12,9 km/h (3 Bft) 97,83 %
_ Min-Zeit 05:46 04:40 04:22 15:24 08:00 - - - - 21:16 19:44
Minimum _ 17,4 C 16,1 C 16,1 C 49 % 1010,7 hPa - - - - 0,0 km/h (0 Bft) 87,23 %
_ Max-Zeit 15:40 14:52 13:04 06:46 12:08 09:00 12:08 09:00 12:26 11:14 10:20
Maximum _ 27,0 C 32,2 C 32,2 C 86 % 1014,4 hPa 0,0 l/m 4 min 0 min 1069 W/m 29,0 km/h
O-SO (5 Bft)
100,00 %
Durchschnitt _ 22,1 C 22,7 C 22,0 C 67 % 1013,2 hPa #0,0 l/m #0 min. #0 min. 29 W/m 10,3 km/h (2 Bft) 97,51 %
© 2019 W. Hausmann